GFSMW_con_mucape_054.txt.gz
CAPE
342 375 459 545 483 689 979 665 563 335 121 94 95 4 0 0 0 0 0 0 0 0 0 0 0 0 0 0 0 0 0 0 0 0 0 0 0 0 0 0 0 1 4
447 528 737 868 930 1163 827 563 455 233 221 325 303 52 0 0 0 0 0 0 0 0 0 0 0 0 0 0 0 0 0 0 0 0 0 0 0 0 0 0 0 4 4
648 800 999 1120 1184 867 820 665 543 399 497 307 25 4 0 0 0 0 0 0 0 0 0 0 0 0 0 0 0 0 0 0 0 0 0 0 0 0 0 0 0 0 0
831 989 1119 872 818 751 674 690 738 613 345 6 0 0 0 0 3 7 7 0 0 0 0 0 0 0 0 0 0 0 0 0 0 0 0 0 0 0 0 0 0 0 0
845 877 1010 882 894 863 852 520 172 44 0 1 5 0 47 33 23 14 32 3 0 0 0 0 0 0 0 5 17 30 17 3 7 7 1 0 0 0 7 0 0 0 0
663 453 543 451 282 461 368 261 4 0 0 0 0 7 10 0 0 1 1 1 4 0 0 0 3 1 0 0 10 13 9 4 4 9 6 5 2 0 6 1 0 0 0
318 91 46 7 7 2 4 0 0 0 0 0 0 0 0 0 0 4 7 1 0 0 0 0 0 0 0 0 8 32 51 24 14 9 14 16 10 0 0 0 0 0 0
186 1 0 0 0 0 0 0 0 0 0 0 0 0 0 0 6 12 7 0 0 0 0 0 0 0 0 0 1 20 41 57 28 20 12 17 14 17 7 0 0 0 0
123 0 0 3 0 0 0 0 3 4 0 0 0 1 3 11 19 18 8 0 0 0 0 0 0 0 0 0 1 5 42 41 13 14 11 13 14 14 12 2 0 0 0
70 0 0 4 8 5 5 2 9 4 0 0 6 12 17 13 4 11 0 0 0 0 0 0 0 0 0 0 0 1 23 17 25 23 17 1 8 4 5 0 0 0 0
43 15 3 10 18 5 5 0 1 0 6 13 12 24 15 0 1 0 0 0 0 0 0 0 0 0 0 0 7 13 8 12 2 0 2 3 5 2 1 0 0 0 6
42 31 34 8 13 4 1 0 2 12 13 18 27 23 12 8 0 0 0 0 0 0 0 0 0 0 6 1 0 0 0 0 0 0 2 3 3 0 0 0 0 0 0
31 36 38 6 2 0 0 0 7 7 8 18 7 13 1 0 0 0 0 0 0 0 0 0 0 6 0 0 0 0 2 0 4 12 10 7 1 0 0 0 0 0 0
44 37 1 0 0 0 0 0 8 4 13 17 28 3 0 0 0 0 0 0 0 0 0 0 11 3 0 0 0 1 8 2 0 0 0 0 0 0 0 0 0 0 0
48 0 0 0 0 0 0 0 0 0 13 47 10 10 0 0 0 0 0 0 0 0 1 11 3 0 0 7 2 3 0 0 0 0 0 0 0 0 0 0 0 0 0
0 0 0 0 0 0 0 0 0 10 14 24 18 9 7 0 0 0 0 0 0 0 6 7 0 0 0 16 8 4 0 0 0 0 0 0 0 0 0 0 0 0 0
0 0 0 1 0 0 0 0 1 11 25 17 12 5 0 0 0 0 0 0 0 2 14 1 0 0 4 2 12 13 1 0 0 0 0 0 0 0 0 0 0 0 0
0 0 0 0 0 0 0 0 12 12 15 14 2 0 0 0 0 0 0 0 1 1 2 0 0 2 10 0 2 3 0 0 0 0 0 0 0 0 0 0 0 0 0
0 0 0 0 0 0 0 0 13 12 3 0 0 0 0 0 0 0 0 0 0 0 0 0 0 0 12 0 1 0 0 0 0 0 0 0 0 0 0 0 0 0 0
0 0 0 0 0 0 0 3 9 9 4 0 0 0 0 0 0 0 0 0 0 0 2 0 0 0 0 0 0 0 0 0 0 0 0 0 0 0 0 0 0 0 0
0 0 0 0 2 1 0 5 3 0 0 0 0 0 0 0 0 0 0 0 0 5 0 0 0 0 0 0 0 0 0 0 0 0 0 0 0 0 0 0 0 0 0
0 0 0 6 4 6 10 11 1 0 0 0 0 0 0 0 0 0 0 0 3 0 0 0 0 0 0 0 0 0 0 0 0 0 0 0 0 0 0 0 0 0 0
0 0 0 6 15 12 3 0 0 0 0 0 0 0 0 0 0 0 0 0 0 0 0 0 0 0 0 0 0 0 0 0 0 0 0 0 0 0 0 0 0 0 0
0 2 10 8 7 0 0 0 0 0 0 0 0 0 0 0 0 0 0 0 0 0 0 0 0 0 0 0 0 0 0 0 0 0 0 0 0 0 0 0 0 0 0
0 0 6 2 0 0 0 0 0 0 0 0 0 0 0 0 0 0 0 0 0 0 0 0 0 0 0 0 0 0 0 0 0 0 0 0 0 0 0 0 0 0 0
0 2 0 0 0 0 0 0 0 0 0 0 0 0 0 0 0 0 0 0 0 0 0 0 0 0 0 0 0 0 0 0 0 0 0 0 0 0 0 0 0 0 0

GFSMW_con_mucape_057.txt.gz
CAPE
13 6 31 177 462 491 440 389 387 306 273 136 53 46 21 3 5 16 0 0 0 0 0 0 0 0 0 0 0 0 0 0 0 0 0 0 0 0 0 0 0 0 3
189 273 276 258 600 593 563 552 476 276 152 57 67 4 0 0 0 0 0 0 0 0 0 0 0 0 0 0 0 0 0 0 0 0 0 0 0 0 0 0 0 0 0
240 349 460 801 653 644 633 611 494 391 92 105 80 7 0 0 0 0 0 0 0 0 0 0 0 0 0 0 0 0 0 0 0 0 0 0 0 0 0 0 0 0 0
408 621 741 790 841 807 681 487 401 83 68 283 181 0 0 0 0 0 0 0 0 0 0 0 0 0 0 0 0 0 0 0 0 0 0 0 0 0 0 0 0 0 0
548 768 873 849 789 744 583 425 216 167 284 232 1 0 0 0 0 0 1 11 22 13 18 0 0 0 0 0 0 0 0 0 0 0 0 0 0 0 0 0 0 0 0
625 908 931 741 504 406 370 465 456 285 0 1 0 0 0 0 0 1 19 26 30 15 4 0 0 0 0 0 0 0 0 0 0 0 0 3 7 3 0 0 0 0 0
681 839 682 587 553 514 489 390 145 5 0 0 0 0 0 0 2 12 16 14 1 12 1 0 0 0 0 0 0 0 0 1 12 14 7 10 24 10 5 0 0 0 0
500 478 492 408 301 140 43 6 0 0 0 0 0 0 2 10 20 25 20 9 0 5 0 0 0 0 0 0 0 0 0 0 17 21 17 15 16 13 4 0 0 0 0
494 389 259 174 76 38 13 0 0 0 0 0 0 1 9 17 21 21 16 0 0 0 0 0 0 0 0 0 0 0 0 1 3 4 7 12 4 7 2 9 1 0 0
349 313 90 0 0 0 0 0 0 2 0 0 1 27 36 35 33 32 15 0 0 0 0 0 0 0 0 0 0 0 0 0 0 0 1 4 4 13 13 2 13 2 0
396 268 8 0 1 6 3 1 0 1 1 0 23 35 43 42 35 25 1 0 0 0 0 0 0 0 0 0 0 0 0 2 8 10 10 8 0 5 16 12 10 0 0
367 202 0 0 6 17 21 6 8 3 3 44 45 33 41 39 7 2 0 0 0 0 0 0 0 0 0 0 0 0 0 0 0 0 0 2 0 1 1 0 0 0 0
266 40 1 16 23 29 29 11 5 36 65 50 25 29 33 34 5 0 0 0 0 0 0 0 0 0 0 0 0 0 0 0 0 0 0 0 0 0 0 0 0 0 0
54 0 15 29 48 36 42 58 85 78 41 35 10 18 28 22 0 0 0 0 0 0 0 0 0 0 0 0 2 0 0 0 0 0 0 0 0 0 0 0 0 0 0
11 0 32 52 48 57 70 87 47 2 1 7 13 21 20 7 0 0 0 0 0 0 0 0 0 0 0 0 0 0 11 7 1 0 0 0 0 0 0 0 0 0 0
63 71 73 52 64 76 66 0 0 0 0 3 12 20 16 14 1 0 0 0 0 0 0 0 0 0 0 0 0 0 3 11 1 1 0 0 0 0 0 0 0 0 0
49 50 43 28 6 0 0 0 0 0 0 3 15 12 7 0 0 0 0 0 0 0 0 0 0 0 0 0 0 0 0 0 3 0 0 0 0 0 0 0 0 0 0
0 0 0 0 0 6 0 0 0 0 1 12 9 10 4 0 0 0 0 0 0 0 0 0 0 0 0 0 0 1 0 1 0 0 0 0 0 0 0 0 0 0 0
0 0 0 0 15 22 20 1 0 0 0 4 0 0 0 0 0 0 0 0 0 0 0 0 0 0 0 0 0 0 0 0 0 0 0 0 0 0 0 0 0 0 0
0 0 0 0 0 0 0 0 2 2 6 3 0 0 0 0 0 0 0 0 0 0 0 0 0 0 0 0 0 0 0 0 0 0 0 0 0 0 0 0 0 0 0
0 0 0 0 0 0 1 9 16 18 2 0 0 0 0 0 0 0 0 0 0 0 0 0 0 0 0 0 0 0 0 0 0 0 0 0 0 0 0 0 0 0 0
0 0 0 0 0 6 15 19 9 0 0 0 0 0 0 0 0 0 0 0 0 0 0 0 0 0 0 0 0 0 0 0 0 0 0 0 0 0 0 0 0 0 0
0 0 1 7 12 15 16 3 0 0 0 0 0 0 0 0 0 0 0 0 0 0 0 0 0 0 0 0 0 0 0 0 0 0 0 0 0 0 0 0 0 0 0
0 0 4 0 0 1 0 0 0 0 0 0 0 0 0 0 0 0 0 0 0 0 0 0 0 0 0 0 0 0 0 0 0 0 0 0 0 0 0 0 0 0 0
0 0 0 0 0 0 0 0 0 0 0 0 0 0 0 0 0 0 0 0 0 0 0 0 0 0 0 0 0 0 0 0 0 0 0 0 0 0 0 0 0 0 0
0 0 0 0 0 0 0 0 0 0 0 0 0 0 0 0 0 0 0 0 0 0 0 0 0 0 0 0 0 0 0 0 0 0 0 0 0 0 0 0 0 0 0

GFSMW_con_mucape_060.txt.gz
CAPE
35 100 162 59 115 253 162 331 430 504 294 236 158 79 35 44 12 1 0 0 0 0 0 0 0 0 0 0 0 0 0 0 0 0 0 0 0 0 0 0 0 0 0
60 63 59 170 201 294 337 394 509 538 386 318 150 73 79 18 0 0 0 0 0 0 0 0 0 0 0 0 0 0 0 0 0 0 0 0 0 0 0 0 0 0 0
4 2 61 291 283 345 393 389 465 428 407 334 152 72 2 0 0 0 0 0 0 0 0 0 0 0 0 0 0 0 0 0 0 0 0 0 0 0 0 0 0 0 0
161 282 275 410 397 421 452 471 489 468 374 241 92 0 0 0 0 0 0 0 0 0 0 0 0 0 0 0 0 0 0 0 0 0 0 0 0 0 0 0 0 0 0
222 494 512 495 566 598 615 638 526 391 270 74 143 28 0 0 0 0 0 0 0 0 4 0 0 0 0 0 0 0 0 0 0 0 0 0 0 0 0 0 0 0 0
307 594 732 773 801 779 792 587 457 215 81 273 213 4 0 0 0 0 0 10 22 33 19 1 0 0 0 0 0 0 0 0 0 0 0 0 0 0 0 0 0 0 0
518 703 760 806 816 706 524 386 219 178 252 255 21 0 0 0 0 1 17 32 20 12 31 1 0 0 0 0 0 0 0 0 0 0 0 6 6 9 9 0 0 0 1
589 802 894 796 596 512 321 311 380 214 0 0 6 5 0 4 8 14 21 33 30 7 3 9 0 0 0 0 0 0 0 0 0 0 0 0 2 11 15 18 23 0 0
691 976 998 778 480 402 441 570 424 57 2 7 20 23 21 22 36 44 23 20 0 1 4 0 0 0 0 0 0 0 0 0 0 0 0 0 4 4 1 33 28 24 0
795 852 690 566 318 170 65 18 10 15 20 25 11 11 17 30 17 16 22 0 4 3 0 0 0 0 0 0 0 0 0 0 0 0 0 2 6 4 6 12 4 4 6
501 590 588 456 307 156 37 8 8 10 8 0 4 25 20 8 0 0 13 5 0 2 0 0 0 0 0 0 0 0 0 0 0 0 0 0 1 5 10 7 16 6 1
411 340 338 369 116 5 0 0 0 2 10 19 31 32 50 16 0 33 20 5 17 0 0 0 0 0 0 0 0 0 0 0 0 0 0 0 2 0 0 0 0 0 0
337 321 366 286 10 0 0 5 18 33 35 51 62 72 47 75 38 17 34 0 0 0 0 0 0 0 0 0 0 0 0 2 0 0 0 0 0 0 0 0 0 0 0
380 377 356 223 0 0 16 48 56 70 66 57 58 69 46 16 22 28 15 4 0 0 0 0 0 0 0 0 0 0 2 0 0 0 0 0 0 0 0 0 0 0 0
404 372 238 70 37 35 51 56 59 68 81 68 8 0 9 17 23 24 4 2 0 0 0 0 0 0 0 0 0 3 1 0 0 8 7 1 0 0 0 0 0 0 0
371 355 76 32 44 43 63 78 47 33 1 0 0 9 11 0 1 1 8 0 0 0 0 0 0 0 0 0 0 2 0 0 0 0 0 0 0 0 0 0 0 0 0
131 134 78 83 61 71 54 56 15 0 0 0 4 17 8 0 0 0 0 0 0 0 0 0 0 0 0 0 0 0 0 0 0 0 0 0 0 0 0 0 0 0 0
59 71 57 53 43 39 37 32 22 35 15 16 32 33 2 0 0 0 0 0 0 0 0 0 0 0 0 0 0 0 0 0 0 0 0 0 0 0 0 0 0 0 0
5 6 2 0 4 18 24 38 57 64 57 35 12 3 3 0 0 0 0 0 0 0 0 0 0 0 0 0 0 0 0 0 0 0 0 0 0 0 0 0 0 0 0
0 0 0 0 5 6 18 31 29 24 23 9 4 0 0 0 0 0 0 0 0 0 0 0 0 0 0 0 0 0 0 0 0 0 0 0 0 0 0 0 0 0 0
0 0 0 0 0 1 12 26 26 23 6 5 0 0 0 0 0 0 0 0 0 0 0 0 0 0 0 0 0 0 0 0 0 0 0 0 0 0 0 0 0 0 0
0 0 0 2 9 18 20 19 8 1 0 0 0 0 0 0 0 0 0 0 0 0 0 0 0 0 0 0 0 0 0 0 0 0 0 0 0 0 0 0 0 0 0
0 0 5 9 16 15 24 5 0 0 0 0 0 0 0 0 0 0 0 0 0 0 0 0 0 0 0 0 0 0 0 0 0 0 0 0 0 0 0 0 0 0 0
3 7 9 0 0 8 0 0 0 0 0 0 0 0 0 0 0 0 0 0 0 0 0 0 0 0 0 0 0 0 0 0 0 0 0 0 0 0 0 0 0 0 0
9 10 0 0 0 0 0 0 0 0 0 0 0 0 0 0 0 0 0 0 0 0 0 0 0 0 0 0 0 0 0 0 0 0 0 0 0 0 0 0 0 0 0
0 0 0 0 0 0 0 0 0 0 0 0 0 0 0 0 0 0 0 1 2 0 0 0 0 0 0 0 0 0 0 0 0 0 0 0 0 0 0 0 0 0 0

GFSMW_con_mucape_063.txt.gz
CAPE
52 66 199 228 205 231 166 180 156 172 236 243 216 196 184 104 41 18 14 14 0 0 0 0 0 0 0 0 0 0 0 0 0 0 0 0 0 0 0 0 0 0 0
39 29 190 294 173 169 41 107 251 230 271 263 212 176 156 38 45 24 25 0 0 0 0 0 0 0 0 0 0 0 0 0 0 0 0 0 0 0 0 0 0 0 0
86 20 94 321 240 153 109 87 238 388 402 353 240 162 81 80 44 36 0 0 0 0 0 0 0 0 0 0 0 0 0 0 0 0 0 0 0 0 0 0 0 0 0
47 30 63 288 107 48 166 250 264 392 477 373 298 205 161 83 35 1 0 0 0 0 0 0 0 0 0 0 0 0 0 0 0 0 0 0 0 0 0 0 0 0 0
77 44 51 139 202 138 159 316 361 403 508 380 249 210 41 0 0 0 0 0 0 0 0 0 4 0 2 2 0 0 0 0 0 0 0 0 0 0 0 0 0 0 0
122 91 95 224 204 124 170 321 421 444 457 404 221 48 10 0 0 0 0 0 0 3 12 4 10 4 5 1 0 0 0 0 0 0 0 0 0 0 0 0 0 0 0
91 320 148 195 191 162 259 365 430 480 464 266 27 96 208 0 0 0 1 0 1 2 0 10 3 0 5 0 0 0 0 0 0 0 0 0 3 9 13 0 0 0 0
140 346 370 252 275 348 483 482 502 414 198 43 146 249 223 5 4 3 0 22 29 17 15 18 6 1 0 0 0 0 0 0 0 0 0 0 0 6 17 9 0 0 0
300 421 568 626 721 703 588 447 287 150 151 223 250 118 60 12 49 30 9 0 0 0 0 12 5 2 0 0 0 0 0 0 0 0 0 0 0 0 17 18 14 19 0
413 498 621 792 856 755 470 367 222 261 248 5 3 17 56 33 23 34 34 12 0 1 9 4 4 0 0 0 0 0 0 0 0 0 0 0 0 0 0 3 5 13 4
507 607 749 947 887 614 361 335 299 417 123 21 15 66 35 18 28 10 32 48 0 3 2 8 1 0 0 0 0 0 0 0 0 0 0 0 0 0 0 0 2 3 0
695 750 909 1035 721 414 456 493 549 256 14 14 12 0 0 1 19 33 2 20 25 4 5 2 0 0 0 0 0 0 0 0 0 0 0 0 0 0 0 0 0 0 0
783 939 1024 815 619 394 193 24 3 10 35 58 29 45 50 54 69 51 68 4 5 8 12 4 0 0 0 0 0 0 0 0 0 0 0 0 0 0 0 0 0 0 0
510 609 605 608 579 332 207 18 22 37 24 39 69 71 82 62 51 6 6 3 0 21 3 0 0 0 0 0 0 0 0 0 0 0 0 0 4 3 2 0 0 0 0
381 444 423 338 349 320 152 51 58 53 49 61 80 46 71 10 4 7 11 10 1 0 0 0 0 0 0 0 0 0 0 0 0 0 0 0 0 8 0 0 0 0 0
178 342 426 347 209 102 53 57 64 51 90 102 44 60 2 4 8 13 12 4 0 0 0 0 0 0 0 0 0 0 0 0 0 0 0 0 0 0 0 0 0 0 0
38 185 353 354 108 73 74 54 69 76 67 74 40 11 19 21 23 20 12 1 0 0 0 0 0 0 0 0 0 0 0 0 0 0 0 0 0 0 0 0 0 0 0
9 37 102 158 70 76 46 54 71 86 50 22 31 35 30 21 18 15 0 0 0 0 0 0 0 0 0 0 0 0 0 0 0 0 0 0 0 0 0 0 0 0 0
38 49 48 62 83 76 75 69 29 12 14 29 30 29 36 25 3 0 0 0 0 0 0 0 0 0 0 0 0 0 0 0 0 0 0 0 0 0 0 0 0 0 0
0 11 38 62 56 35 17 0 7 25 33 23 19 14 8 0 0 0 0 0 0 0 0 0 0 0 0 0 0 0 0 0 0 0 0 0 0 0 0 0 0 0 0
0 0 5 10 7 0 5 12 17 15 14 3 2 0 0 0 0 0 0 0 0 0 0 0 0 0 0 0 0 0 0 0 0 0 0 0 0 0 0 0 0 0 0
0 0 0 0 0 1 5 7 13 13 12 0 0 0 0 0 0 0 0 0 0 0 0 0 0 0 0 0 0 0 0 0 0 0 0 0 0 0 0 0 0 0 0
0 0 0 2 7 9 13 15 6 2 0 0 0 0 0 0 0 0 0 0 0 0 0 0 0 0 0 0 0 0 0 0 0 0 0 0 0 0 0 0 0 0 0
0 0 2 0 12 20 10 2 1 0 0 0 0 0 0 0 0 0 0 0 0 0 0 0 0 0 0 0 0 0 0 0 0 0 0 0 0 0 0 0 0 0 0
4 11 13 13 9 4 3 0 0 0 0 0 0 0 0 0 0 0 0 0 0 0 0 0 10 7 0 0 0 0 0 0 0 0 0 0 0 0 0 0 0 0 0
8 14 15 10 5 1 0 0 0 0 0 0 0 0 0 0 0 0 0 0 0 0 0 0 3 4 4 4 0 0 0 0 0 0 0 0 0 0 0 0 0 0 0

GFSMW_con_mucape_066.txt.gz
CAPE
173 195 144 131 147 109 196 253 357 370 44 54 139 238 242 281 199 110 51 51 47 2 0 0 0 0 0 0 0 0 0 0 0 0 0 0 0 0 0 0 0 0 0
206 210 208 169 152 195 253 245 179 147 51 81 158 207 214 190 135 67 50 62 38 0 0 0 0 0 0 0 0 0 0 0 0 0 0 0 0 0 0 0 0 0 0
179 138 130 194 207 132 267 287 175 43 64 119 179 188 167 130 85 64 82 78 3 0 0 0 0 0 0 0 0 0 0 0 0 0 0 0 0 0 0 0 0 0 0
246 101 0 89 275 181 234 243 180 69 83 167 233 276 144 67 58 94 72 3 0 0 0 0 0 0 0 0 0 0 0 0 0 0 0 0 0 0 0 0 0 0 0
299 138 34 44 187 254 204 215 126 67 119 176 259 177 121 98 107 34 4 0 0 0 0 2 0 4 3 6 1 0 0 0 0 0 0 0 0 0 0 0 0 0 0
296 149 75 42 60 219 266 190 106 140 147 227 236 177 166 84 4 0 0 0 0 2 12 12 3 11 12 12 8 0 0 0 0 0 0 0 0 0 0 0 0 0 0
228 116 74 48 81 117 241 57 143 163 202 211 321 198 120 17 0 0 0 0 1 11 21 2 5 8 1 15 4 0 0 0 0 0 0 0 0 0 0 0 0 0 0
185 113 72 98 149 82 56 144 233 248 263 249 317 220 127 47 30 0 0 1 1 14 13 8 1 0 9 14 10 1 0 0 0 0 0 0 0 0 0 0 0 0 0
101 151 111 183 260 200 110 214 280 260 296 416 403 183 60 131 58 0 1 4 4 8 14 5 0 0 5 15 1 0 0 0 0 0 0 0 0 0 0 0 7 0 0
18 105 253 248 311 327 306 421 444 460 480 473 263 109 110 85 99 27 1 15 17 14 0 0 0 3 9 2 0 0 0 0 0 0 0 0 0 0 0 0 0 0 0
64 170 254 326 361 371 463 615 508 438 326 122 191 170 95 76 92 42 30 53 37 23 18 2 0 1 0 2 0 0 0 0 0 0 0 0 0 0 0 0 0 0 0
198 274 346 418 481 575 647 589 446 212 117 203 194 73 22 30 43 18 25 0 22 0 1 1 0 0 0 0 0 0 0 0 0 0 0 0 0 0 0 0 0 0 0
326 435 501 528 527 767 729 463 346 188 208 223 119 41 34 52 34 20 0 9 20 1 12 9 2 0 0 0 0 0 0 0 0 0 0 0 0 0 0 0 0 0 0
279 570 650 700 763 942 771 386 354 304 277 296 87 29 26 54 56 59 37 5 10 15 20 14 0 0 0 0 0 0 0 0 0 0 0 0 0 0 0 2 1 5 0
152 322 685 850 916 881 529 379 238 227 177 80 54 24 13 36 51 50 22 10 18 20 13 1 0 0 0 0 0 0 0 0 0 0 0 0 0 1 0 0 0 0 0
24 230 347 583 721 628 346 131 117 98 62 64 46 36 69 70 50 39 26 10 8 6 0 0 0 0 0 0 0 0 0 0 0 0 0 0 0 0 0 0 0 0 0
4 19 141 289 369 321 266 181 99 67 59 65 62 68 50 42 46 23 13 10 11 0 0 0 0 0 0 0 0 0 0 0 0 0 0 0 0 0 0 0 0 0 0
0 9 51 97 140 149 91 31 35 44 51 93 72 46 49 44 22 2 0 3 0 0 0 0 0 0 0 0 0 0 0 0 0 0 0 0 0 0 0 0 0 0 0
0 20 30 36 46 43 43 33 54 60 62 70 59 46 44 18 19 3 0 0 0 0 0 0 0 0 0 0 0 0 0 0 0 0 0 0 0 0 0 0 0 0 0
0 0 0 0 17 40 49 40 30 70 77 50 41 41 19 2 1 0 0 0 0 0 0 0 0 0 0 0 0 0 0 0 0 0 0 0 0 0 0 0 0 0 0
0 0 0 9 41 62 79 79 42 23 19 20 3 1 4 0 0 0 0 0 0 0 0 0 0 0 0 0 0 0 0 0 0 0 0 0 0 0 0 0 0 0 0
0 0 0 0 0 1 6 8 11 22 17 9 1 0 0 0 0 0 0 0 0 0 0 0 0 0 0 0 0 0 0 0 0 0 0 0 0 0 0 0 0 0 0
0 0 0 0 0 2 2 5 2 1 0 0 0 0 0 0 0 0 0 0 0 0 0 0 0 0 0 0 3 13 9 0 0 0 0 0 0 0 0 0 0 0 0
0 0 0 0 0 1 0 2 0 0 0 0 0 0 0 0 0 0 0 0 0 0 0 0 0 0 0 0 0 0 12 18 3 0 0 0 0 0 0 0 0 0 0
0 0 0 1 0 0 0 0 0 0 0 0 0 0 0 0 0 0 0 0 0 0 0 0 0 0 0 0 0 0 1 1 2 0 0 0 0 0 0 0 0 0 0
0 0 0 2 1 0 0 0 0 0 0 0 0 0 0 0 0 0 0 0 0 0 0 0 0 0 0 0 0 26 21 3 11 0 0 0 0 0 0 0 0 0 0

GFSMW_con_mucape_069.txt.gz
CAPE
145 72 74 70 30 41 31 81 236 264 68 15 17 69 227 249 188 48 77 30 17 20 7 0 0 0 0 0 0 0 0 0 0 0 0 0 0 0 0 0 0 0 0
235 167 162 208 200 145 109 140 183 212 289 14 14 25 152 178 89 69 50 43 21 4 0 0 0 0 0 0 0 0 0 0 0 0 0 0 0 0 0 0 0 0 0
306 279 214 256 204 219 129 152 276 339 427 145 42 75 144 107 86 91 59 19 11 11 0 0 0 0 0 0 0 0 0 0 0 0 0 0 0 0 0 0 0 0 0
334 241 153 203 247 181 130 219 304 300 186 189 95 121 161 91 54 61 49 14 19 0 0 0 0 0 0 0 0 0 0 0 0 0 0 0 0 0 0 0 0 0 0
474 313 160 91 162 134 113 85 216 295 190 71 87 131 173 80 99 63 21 4 4 0 0 0 1 7 3 12 5 2 0 1 0 0 0 0 0 0 0 0 0 0 0
475 407 319 113 54 24 179 169 143 226 254 125 65 102 175 75 79 58 13 3 0 0 0 0 2 11 4 5 0 0 1 0 0 0 0 0 0 0 0 0 0 0 1
300 369 389 283 70 24 56 224 219 216 214 131 85 171 112 150 77 58 4 0 0 0 0 1 15 20 30 0 1 0 7 0 0 0 0 0 0 0 0 0 0 0 0
162 269 338 372 171 89 53 72 219 266 127 153 105 205 232 226 69 0 0 0 0 0 0 2 21 7 11 0 0 0 0 0 0 0 0 0 0 0 0 0 0 0 0
0 100 274 349 249 143 105 115 130 265 292 260 288 284 272 281 87 53 7 1 9 0 8 15 17 2 0 0 0 0 0 0 0 0 0 0 0 0 0 0 0 0 0
0 0 60 321 275 226 250 231 190 266 420 367 363 369 328 236 96 101 37 25 24 15 31 20 3 0 0 0 0 0 0 0 0 0 0 0 0 0 0 0 0 0 0
3 17 184 197 280 343 369 256 315 432 371 432 505 402 379 208 105 137 53 53 50 28 0 1 0 0 0 0 0 0 0 0 0 0 0 0 0 0 0 0 0 0 32
112 153 324 414 386 400 309 230 331 484 508 540 528 464 322 162 131 74 70 91 35 2 4 3 0 0 6 1 0 0 0 0 0 0 0 0 0 0 0 0 0 0 37
97 239 306 391 386 367 405 249 435 593 490 449 420 212 222 128 45 55 17 12 19 4 0 0 3 7 0 0 0 0 0 0 0 0 0 0 0 0 0 0 0 7 0
4 227 370 412 488 514 479 563 718 561 427 268 169 91 113 67 46 23 10 17 21 0 0 0 0 0 0 0 0 0 0 0 0 0 0 0 0 0 0 0 0 0 0
0 24 240 473 574 627 566 706 527 505 268 131 98 87 68 57 1 0 17 6 0 0 0 1 0 0 0 0 0 0 0 0 0 0 0 0 0 0 0 0 0 0 0
0 0 26 257 545 670 639 405 284 177 202 55 24 26 59 0 6 5 9 5 0 0 0 0 0 0 0 0 0 0 0 0 0 0 0 0 0 0 0 0 0 0 0
0 0 5 96 260 498 471 371 208 100 48 32 19 13 8 11 10 13 3 0 2 0 0 0 0 0 0 0 0 0 0 0 0 0 0 0 0 0 0 0 0 0 0
0 0 0 43 98 147 128 120 78 24 9 0 7 14 18 25 26 7 0 0 0 0 0 0 0 0 0 0 0 0 0 0 0 0 0 0 0 0 0 0 0 0 0
0 0 1 28 60 75 65 20 2 0 3 7 7 15 24 20 2 7 0 0 0 0 0 0 0 0 0 0 0 0 0 0 0 0 0 0 0 0 0 0 0 0 0
0 0 0 0 0 0 0 0 0 2 10 12 7 30 27 19 0 0 0 0 0 0 0 0 0 0 0 0 0 0 0 0 0 0 0 0 0 0 0 0 0 0 0
0 0 0 0 0 0 0 0 3 7 12 40 16 1 1 0 0 0 0 0 0 0 0 0 0 0 0 0 0 0 0 0 0 4 0 0 0 0 0 0 0 0 0
0 0 0 0 0 0 0 7 27 13 7 0 3 12 0 0 0 0 0 0 0 0 0 0 0 0 0 0 0 0 0 1 12 3 1 4 0 0 0 0 0 0 0
0 0 0 0 0 0 0 0 0 0 7 2 0 0 0 0 0 0 0 0 0 0 0 0 0 0 0 0 0 0 0 0 0 0 0 7 6 6 0 0 0 0 0
0 0 0 0 0 0 0 0 1 5 3 0 0 0 0 0 0 0 0 0 0 0 0 0 0 0 0 0 0 0 0 0 0 7 13 5 5 0 0 0 0 0 0
0 0 0 0 0 0 0 0 0 0 0 0 0 0 0 0 0 0 0 0 0 0 0 0 0 0 0 0 0 0 0 0 0 0 21 0 3 0 0 0 0 0 0
0 0 0 1 0 2 2 0 0 0 0 0 0 0 0 0 0 0 0 0 0 0 0 0 0 0 0 0 0 0 0 0 0 0 0 1 0 0 0 0 0 0 0

GFSMW_con_mucape_072.txt.gz
CAPE
245 162 204 154 137 98 108 284 485 677 636 353 137 230 422 389 446 403 261 65 67 19 3 1 0 0 0 0 0 0 0 0 0 0 0 0 0 0 0 0 0 0 0
182 199 187 224 192 186 240 348 469 621 592 200 142 378 564 307 421 362 55 57 19 9 2 0 0 0 0 0 0 0 0 0 0 0 0 0 0 0 0 0 0 0 0
384 226 220 229 229 200 240 293 456 541 592 452 214 398 468 248 266 161 48 66 45 5 0 0 0 0 0 0 0 0 0 0 0 0 0 0 0 0 0 0 0 0 0
364 424 276 310 389 388 299 290 375 548 668 618 378 264 284 350 234 55 55 56 24 3 1 0 0 0 0 0 0 0 0 9 0 0 0 0 0 0 0 0 0 0 0
825 426 460 420 380 446 544 676 632 742 756 697 546 479 456 386 49 39 37 58 25 1 10 0 0 0 0 0 5 1 1 0 0 0 0 0 0 0 0 0 0 0 1
1101 966 616 447 476 840 795 689 613 595 563 499 553 541 509 107 93 74 47 49 1 0 10 0 0 0 0 10 7 9 0 3 0 0 0 0 0 0 0 0 0 0 0
997 1186 1050 858 529 628 776 702 689 619 635 536 497 379 325 114 91 83 104 45 23 17 3 0 0 2 7 13 5 0 0 0 0 0 0 0 0 0 0 0 0 0 0
441 950 1148 1123 735 621 669 710 752 719 647 590 458 352 327 280 146 107 85 43 30 3 0 0 0 0 5 4 3 0 0 0 0 0 0 0 0 0 0 0 0 0 0
223 472 837 1140 973 790 753 736 664 704 598 455 490 447 303 211 256 173 100 16 0 0 0 0 1 4 7 1 0 0 0 0 0 0 0 0 0 0 0 3 1 0 0
121 268 438 779 934 1012 915 805 745 702 658 587 415 335 326 329 275 305 88 5 0 1 13 37 15 13 0 8 0 0 0 0 0 0 0 0 0 0 10 12 11 10 0
240 185 294 445 696 913 946 871 820 758 865 650 398 509 472 351 441 325 105 62 43 36 49 32 2 0 0 0 0 0 0 0 0 0 0 0 4 16 23 21 19 19 27
555 491 524 590 658 899 943 887 917 924 835 639 497 380 376 259 354 124 81 89 76 4 33 18 32 13 0 0 0 0 0 0 0 0 0 0 11 27 31 27 24 29 34
416 731 799 899 820 829 896 930 929 769 487 394 299 295 185 97 86 61 68 64 0 0 21 26 0 0 0 0 0 0 0 0 0 0 4 8 16 23 21 23 23 31 28
82 569 943 1067 1078 998 976 799 722 313 245 359 162 140 61 0 1 57 18 10 8 0 1 2 0 0 0 0 0 0 0 0 0 1 2 5 11 13 18 19 23 30 38
0 66 667 1115 1125 993 849 542 436 261 422 326 102 67 45 41 75 51 10 3 0 0 0 0 0 0 0 0 0 0 0 0 0 0 3 13 11 0 1 1 6 20 23
0 0 236 797 606 449 526 544 516 518 368 231 173 61 30 49 92 37 11 0 3 0 0 0 0 0 0 0 0 0 0 0 0 0 2 6 5 0 0 0 0 0 7
0 0 120 300 230 473 593 494 500 433 270 164 64 28 11 6 4 2 0 0 3 0 0 0 0 0 0 0 0 0 0 0 0 0 1 3 2 5 19 16 4 0 0
0 0 0 12 150 372 497 392 315 186 101 56 31 12 8 0 13 9 0 1 0 0 0 0 0 0 0 0 0 0 0 0 0 0 0 13 20 26 24 40 31 28 20
0 0 0 2 64 136 177 176 158 91 73 37 25 4 2 7 2 0 6 0 0 0 0 0 0 0 0 0 0 0 0 0 0 6 15 25 39 19 3 28 21 21 0
0 0 0 0 1 22 50 55 24 0 0 0 0 1 1 1 10 3 0 0 0 0 0 0 0 0 0 0 0 0 0 0 0 0 6 17 10 0 2 16 60 49 0
0 0 0 0 0 0 0 0 0 0 1 1 2 8 17 5 0 0 0 0 0 0 0 0 0 0 0 0 0 0 0 0 0 0 0 0 19 7 1 6 1 0 19
0 0 0 0 0 0 0 0 2 0 3 3 11 3 0 0 0 0 0 0 0 0 0 0 0 0 0 0 0 0 0 0 0 0 0 0 0 26 7 0 1 2 0
0 0 0 0 0 0 0 0 1 0 0 0 2 1 1 0 0 0 0 0 0 0 0 0 0 0 0 0 0 0 0 0 0 0 0 0 0 0 5 0 0 0 0
0 0 0 0 0 0 0 0 0 0 0 0 0 0 0 0 0 0 0 0 0 0 0 0 0 0 0 0 0 0 0 0 0 0 44 27 0 0 5 4 0 0 0
0 0 0 0 0 0 0 0 0 0 0 0 0 0 0 0 0 0 0 0 0 0 0 0 0 0 0 0 0 0 0 0 0 0 51 62 59 49 32 0 0 0 0
0 0 0 0 0 0 0 0 1 0 0 0 0 0 0 0 0 0 0 0 0 0 0 0 0 0 0 0 0 0 0 0 0 0 24 95 144 75 50 44 31 16 0

GFSMW_con_mucape_075.txt.gz
CAPE
109 144 85 68 54 71 31 26 147 213 457 491 305 199 232 485 655 611 649 616 431 310 231 45 3 0 0 0 0 0 0 0 0 0 0 0 0 0 0 0 0 0 0
143 128 163 165 72 21 1 19 200 407 526 398 169 75 224 568 713 665 516 329 43 45 175 37 0 0 0 0 0 0 0 0 0 0 0 0 0 0 0 0 0 0 0
216 160 230 252 198 72 76 122 313 525 716 383 73 132 550 417 477 497 366 182 67 84 57 0 0 0 0 0 0 0 0 2 0 0 0 0 0 0 0 0 0 0 0
245 196 260 275 269 270 308 366 505 640 742 956 238 313 583 521 508 528 232 30 54 24 44 3 0 0 0 0 0 0 0 0 0 2 0 0 0 0 0 0 0 0 0
459 302 283 266 328 392 385 426 522 591 740 827 781 495 479 449 554 449 94 64 53 49 15 2 0 0 0 0 0 0 5 3 0 0 0 0 0 0 0 0 0 0 0
569 429 432 319 331 1025 1010 987 530 575 796 1129 1065 875 667 556 478 204 38 50 0 0 23 1 3 2 0 0 0 3 1 1 2 0 0 0 0 0 0 0 0 0 0
880 727 432 470 434 643 1023 1111 842 822 883 1192 1245 1272 1082 887 479 143 30 71 63 35 58 1 1 2 0 0 1 2 14 8 13 0 0 0 0 0 0 0 0 0 0
669 988 990 665 531 944 1183 1012 1000 935 849 925 1060 1010 997 783 404 202 73 56 55 85 47 0 6 1 0 0 1 1 2 16 19 0 0 0 0 0 0 0 0 0 0
251 527 899 1245 1045 985 1113 1379 1152 972 916 1030 1288 1153 798 677 635 514 258 63 69 55 2 0 9 1 1 8 12 1 1 12 0 0 0 0 0 0 0 0 0 0 0
296 364 545 986 1315 1305 992 1338 1143 984 1003 1029 1116 867 661 646 603 485 235 158 85 62 5 0 0 13 20 1 0 0 0 0 0 0 0 0 0 0 0 0 4 11 5
325 374 524 731 1041 1409 1288 1238 1110 912 911 1093 1073 774 810 572 393 323 229 159 110 90 11 13 29 21 7 0 0 0 0 0 0 0 0 0 0 0 0 11 13 16 30
212 391 466 528 760 1191 1352 1435 1333 1052 947 1065 1082 541 543 334 375 297 342 190 120 52 75 9 0 0 2 0 0 0 0 0 0 0 0 0 0 13 13 23 24 29 44
117 403 588 744 828 1020 1238 1376 1384 1210 1001 1208 781 323 414 420 724 258 139 54 19 19 2 7 0 2 0 0 0 0 0 0 0 0 0 1 3 10 21 30 33 45 21
63 309 667 833 1026 1034 1229 1253 1305 1245 1003 765 515 284 561 573 236 72 5 10 3 4 0 0 0 1 0 0 0 0 0 0 0 0 0 0 0 3 14 19 44 42 67
0 26 346 884 1198 1304 1303 1216 1303 892 624 343 160 279 379 217 80 43 35 35 47 16 0 0 0 2 0 0 0 0 0 0 0 0 0 0 0 0 1 5 15 30 27
0 0 43 497 1269 1356 1311 961 753 391 313 210 202 270 128 78 66 52 93 51 47 57 19 2 0 0 0 0 0 0 0 0 0 0 0 0 0 0 1 3 4 9 23
26 22 49 592 1117 1060 792 737 479 439 242 205 225 113 141 110 82 37 27 62 29 0 0 0 0 0 0 0 0 0 0 0 0 0 0 0 0 4 22 33 12 9 14
16 83 315 487 526 320 300 346 467 296 168 157 100 113 71 57 39 24 0 3 4 0 0 0 0 0 0 0 0 0 0 0 0 0 1 15 26 37 31 58 68 69 58
13 33 102 116 53 27 172 325 258 125 90 58 56 23 23 40 40 1 12 1 1 3 0 0 0 0 0 0 0 0 0 0 0 0 0 5 14 3 1 16 62 50 52
0 0 0 2 0 0 39 86 64 53 31 23 19 10 11 0 0 0 2 6 2 0 0 0 0 0 0 0 0 0 0 0 0 0 0 0 0 0 0 0 47 51 6
0 0 0 0 0 0 0 0 0 2 0 0 0 0 0 0 7 6 1 0 0 0 0 0 0 0 0 0 0 0 0 0 0 0 0 0 0 0 0 0 0 37 32
0 0 0 0 0 0 0 0 0 0 0 0 0 1 0 9 6 0 0 0 0 0 0 0 0 0 0 0 0 0 0 0 0 0 0 0 0 0 0 0 0 0 2
0 0 0 0 0 0 0 0 0 0 0 0 2 0 1 0 0 0 0 0 0 0 0 0 0 0 0 0 0 0 0 0 0 0 0 0 0 0 0 0 1 0 0
0 0 0 0 0 0 0 0 0 0 0 0 0 0 0 0 0 0 0 0 0 0 0 0 0 0 0 0 0 0 0 0 0 0 0 0 0 1 6 4 13 0 0
0 0 0 0 0 0 0 0 0 0 0 0 0 0 0 0 0 0 0 0 0 0 0 0 0 0 0 0 0 0 0 0 0 0 0 0 0 22 38 27 33 30 34
0 0 0 0 0 0 0 0 0 0 0 0 0 0 0 0 0 0 0 0 0 0 0 0 0 0 0 0 0 0 0 0 0 0 0 0 0 0 0 11 0 28 29

GFSMW_con_mucape_078.txt.gz
CAPE
19 5 10 6 0 0 0 0 0 0 0 15 9 75 73 199 295 222 215 361 398 403 332 96 34 0 0 0 0 0 0 0 0 0 0 0 0 0 0 0 0 0 0
40 47 79 58 18 0 0 1 9 2 0 51 98 24 85 166 255 259 359 363 380 350 247 68 16 0 0 0 0 0 0 0 0 0 0 0 0 0 0 0 0 0 0
116 48 40 81 50 22 15 13 36 52 134 161 231 29 148 226 321 328 368 318 214 143 103 120 19 0 0 0 0 0 0 0 0 0 0 0 0 0 0 0 0 0 0
155 138 95 90 22 18 20 14 23 223 366 368 63 6 42 172 264 319 303 243 141 34 76 53 8 0 0 0 0 0 0 0 0 1 10 3 3 0 0 0 0 0 0
216 120 169 259 182 31 12 31 104 292 394 513 497 110 326 260 343 367 312 179 51 20 62 3 26 15 0 2 0 0 0 0 0 0 6 1 0 0 0 0 0 0 0
267 202 212 232 217 251 160 167 359 479 505 645 678 525 427 340 347 345 281 178 65 39 48 43 0 3 6 4 1 0 0 0 8 8 19 11 6 3 0 0 0 0 0
431 228 227 235 291 295 347 469 432 374 622 679 778 633 605 415 410 303 196 120 39 59 50 23 5 53 6 2 1 0 0 2 2 2 3 1 1 0 0 0 0 0 0
689 525 314 261 281 362 524 476 480 434 463 946 949 797 966 647 554 357 238 52 7 66 82 75 47 34 4 1 6 4 0 0 1 1 3 6 0 0 0 0 0 0 0
461 805 679 453 306 354 598 731 776 700 712 1095 1111 970 864 991 662 352 219 113 47 174 99 71 95 36 2 3 13 3 12 13 0 0 0 0 0 0 0 0 0 0 0
362 346 755 896 469 458 575 821 863 838 920 910 999 1050 735 934 711 468 340 224 198 180 110 74 37 40 9 13 5 6 10 0 0 0 0 0 0 0 0 0 0 0 0
348 366 438 616 1176 750 723 1000 1095 1120 1051 949 1014 1014 981 791 628 561 403 323 267 177 111 34 9 8 0 1 1 0 4 0 0 0 0 0 0 0 0 0 0 1 1
75 231 395 549 816 1335 982 1047 1135 1132 1027 938 1064 1034 868 645 557 588 455 587 229 136 45 1 0 3 0 0 0 0 1 7 0 0 0 0 0 0 5 9 5 1 0
18 179 370 462 557 870 1473 1258 1171 1082 1004 902 971 1037 692 442 664 304 225 321 153 180 77 16 7 10 6 0 1 1 0 0 0 0 0 0 0 0 0 0 1 3 5
0 14 310 487 675 867 1164 1326 1363 1184 1073 777 707 856 587 313 462 312 338 312 239 154 56 7 8 1 15 12 0 0 0 0 0 0 0 0 0 0 0 0 0 0 1
3 0 24 496 783 941 1273 1365 1283 1195 999 956 756 507 540 251 253 396 291 201 145 65 34 13 11 12 0 0 0 0 0 0 0 0 0 0 0 0 0 0 0 0 0
0 0 0 50 1007 1203 1210 1096 1171 1133 855 766 630 526 258 228 180 297 133 42 37 72 55 38 31 16 0 0 0 0 0 0 0 0 0 0 0 0 0 0 0 0 0
0 26 29 54 1283 1145 1171 1013 1044 872 926 730 460 386 156 141 138 92 46 36 79 46 45 41 0 0 0 0 0 0 0 0 0 0 0 0 0 0 0 0 1 0 0
13 14 75 711 984 1069 940 855 657 626 533 429 253 107 65 59 41 57 103 28 26 14 25 0 0 0 0 0 0 0 0 0 0 0 0 0 0 0 0 0 0 0 0
19 58 208 291 484 576 528 229 341 471 153 163 77 26 26 34 41 19 21 24 4 4 4 0 0 0 0 0 0 0 0 0 0 0 0 0 0 0 0 0 0 0 0
0 32 44 55 28 0 0 0 3 1 3 1 1 12 9 0 1 2 0 0 4 3 5 2 0 0 0 0 0 0 0 0 0 0 0 0 0 0 0 0 0 0 0
0 0 0 0 0 0 0 0 0 2 1 1 0 0 0 0 0 1 0 5 10 5 0 0 0 0 0 0 0 0 0 0 0 0 0 0 0 0 0 0 0 0 0
0 0 0 0 0 0 0 0 0 0 0 0 0 0 0 0 0 3 8 11 7 0 0 0 0 0 0 0 0 0 0 0 0 0 0 0 0 0 0 0 0 0 0
0 0 0 0 0 0 0 0 0 0 0 0 0 0 2 1 4 3 2 0 0 0 0 0 0 0 0 0 0 0 0 0 0 0 0 0 0 0 0 0 0 0 3
0 0 0 0 0 0 0 0 0 0 0 0 0 0 0 0 2 2 0 0 0 0 0 0 0 0 0 0 0 0 0 0 0 0 0 0 0 0 0 0 0 0 0
0 0 0 0 0 0 0 0 0 0 0 0 0 0 0 0 0 0 0 0 0 0 0 0 0 0 0 0 0 0 0 0 0 0 0 0 0 0 0 0 0 0 1
0 0 0 0 0 0 0 0 0 0 0 0 0 0 0 2 1 0 0 0 0 0 0 0 0 0 0 0 0 0 0 0 0 0 0 0 0 0 0 0 0 0 0

GFSMW_con_mucape_081.txt.gz
CAPE
44 29 32 9 4 9 0 0 0 0 0 0 0 0 0 23 7 32 64 64 80 99 110 171 61 26 0 0 0 0 0 0 0 0 0 0 0 0 0 0 0 0 0
2 1 0 0 0 0 0 0 0 0 0 0 0 0 2 15 35 32 26 33 88 145 133 89 63 17 0 0 0 0 0 0 0 0 0 0 0 0 0 0 0 0 0
0 0 0 2 0 0 0 0 0 0 0 0 0 0 3 27 15 5 10 99 176 216 181 101 49 2 0 0 0 0 0 0 0 0 0 0 0 0 0 0 0 0 0
0 0 0 0 0 0 0 0 0 0 0 0 0 0 0 0 3 40 69 157 219 168 126 82 56 16 0 8 0 0 0 0 0 0 0 0 0 0 0 0 0 0 0
73 2 1 0 0 0 0 0 0 0 0 0 0 0 0 0 93 149 151 240 189 172 99 42 22 20 3 0 0 0 0 0 0 0 0 0 4 0 0 0 0 0 0
128 65 0 0 0 0 0 0 0 0 6 8 38 82 27 28 75 173 170 217 218 137 34 30 22 21 3 0 1 0 0 3 0 0 0 0 4 0 0 0 0 0 0
210 137 71 0 1 0 0 0 0 0 59 118 137 159 39 27 144 163 234 266 215 155 63 47 66 67 33 5 3 13 1 6 3 0 1 0 0 0 0 0 0 0 0
227 244 168 102 37 48 2 0 0 0 95 209 242 248 205 151 111 225 264 287 229 204 101 42 89 74 65 90 47 39 0 11 24 7 7 3 3 0 0 0 0 0 0
230 262 301 320 277 164 98 55 26 3 133 365 388 358 280 193 370 358 307 282 277 199 117 51 91 92 81 33 18 0 0 18 13 13 8 2 0 0 0 0 0 0 0
257 270 281 347 351 323 274 227 129 209 197 163 439 529 526 512 383 373 381 414 219 176 111 90 76 110 53 51 4 2 0 0 2 1 24 8 4 0 0 0 0 0 0
188 123 199 304 408 419 332 318 242 243 313 230 634 762 690 556 757 751 399 351 272 161 129 127 86 42 13 1 1 0 0 0 0 0 1 4 0 0 0 0 0 0 0
112 55 98 139 335 463 433 394 364 325 425 436 665 1010 981 804 583 740 742 545 351 207 171 140 71 18 11 23 4 8 0 0 0 0 0 0 0 0 0 0 0 0 0
0 4 39 106 399 522 550 463 445 451 569 668 760 779 934 936 622 359 470 418 408 330 436 233 111 64 20 20 4 1 12 9 0 0 0 0 0 0 0 0 0 0 0
0 2 18 58 146 500 715 641 630 645 732 762 936 849 919 923 608 486 352 325 338 326 281 109 63 81 11 19 4 16 10 1 0 0 0 0 0 0 0 0 0 0 0
1 0 34 73 158 378 866 963 963 988 1037 1009 899 940 887 734 523 380 345 336 145 138 126 1 55 33 27 13 1 3 0 0 0 0 0 0 0 0 0 0 0 0 0
0 0 0 85 309 582 867 1144 1082 976 934 854 860 712 609 429 311 319 216 145 138 52 51 66 53 32 21 24 0 0 0 0 0 0 0 0 0 0 0 0 0 0 0
0 0 46 457 629 749 820 888 967 949 959 807 605 529 409 298 229 131 111 179 97 80 95 31 20 12 2 2 0 0 0 0 0 0 0 0 0 0 0 0 0 0 0
2 8 330 510 736 757 783 836 833 728 746 672 357 222 226 155 68 45 77 102 78 40 33 48 49 0 2 0 0 0 0 0 0 0 0 0 0 0 0 0 0 0 0
1 56 290 635 889 870 802 672 617 614 597 364 118 229 147 74 25 12 53 17 20 38 35 19 0 0 0 1 0 0 0 0 0 0 0 0 0 0 0 0 0 0 0
11 64 127 220 406 542 595 561 446 266 1 90 104 4 9 6 2 9 6 17 20 17 14 1 0 2 2 0 0 0 0 0 0 0 0 0 0 0 0 0 0 0 0
0 18 40 80 97 79 44 32 0 0 2 1 2 2 5 8 5 8 5 11 1 0 0 2 5 0 0 0 0 0 0 0 0 0 0 0 0 0 0 0 0 0 0
0 0 0 0 0 0 0 0 1 1 0 2 1 5 5 2 3 3 4 4 6 8 6 6 1 0 0 0 0 0 0 0 0 0 0 0 0 0 0 0 0 0 0
0 0 0 0 0 0 0 0 0 0 0 0 2 2 1 0 0 0 3 7 4 12 9 7 0 0 0 0 0 0 0 0 0 0 0 0 0 0 0 0 0 0 0
0 0 0 0 0 0 0 0 0 0 0 0 0 0 0 0 1 0 0 0 0 0 5 2 0 0 0 0 0 0 0 0 0 0 0 0 0 0 0 0 0 0 0
0 0 0 0 0 0 0 0 0 0 0 0 0 0 0 0 0 0 2 0 0 0 0 0 0 0 0 0 0 0 0 0 0 0 0 0 0 0 0 0 0 0 0
0 0 0 0 0 0 0 0 0 0 0 0 0 0 0 0 0 0 0 0 0 0 0 0 0 0 0 0 0 0 0 0 0 0 0 0 0 0 0 0 0 0 0

GFSMW_con_mucape_084.txt.gz
CAPE
21 16 2 4 14 9 18 17 27 11 11 12 2 3 3 0 1 1 3 45 23 75 144 107 69 51 43 9 0 0 0 0 0 0 0 0 0 0 0 0 0 0 0
46 6 0 0 0 0 0 0 0 0 2 3 11 2 0 0 0 1 6 2 0 17 49 89 70 46 27 0 0 0 0 0 0 0 0 0 0 0 0 0 0 0 0
0 0 0 0 0 0 0 0 0 0 0 0 0 0 0 0 5 10 0 0 0 9 48 65 118 36 10 14 1 0 0 0 0 0 0 0 0 0 0 0 0 0 0
0 0 0 0 0 0 0 0 0 0 0 0 0 0 0 0 0 0 0 0 23 43 50 59 81 66 23 50 6 4 0 0 0 0 0 0 0 0 0 0 0 0 0
10 0 0 0 0 0 0 0 0 0 0 0 0 0 0 0 0 0 0 0 1 32 55 70 108 76 45 45 6 20 1 0 0 0 0 0 0 0 0 0 0 0 0
66 41 0 0 0 0 0 0 0 0 0 0 0 0 0 0 0 5 2 14 4 26 73 104 123 113 81 50 48 12 9 3 4 9 7 0 0 0 0 0 0 0 0
148 111 14 0 0 0 0 0 0 0 0 0 0 0 0 0 0 13 22 9 13 80 127 126 111 118 75 64 76 95 63 46 29 5 0 13 10 5 8 0 0 0 0
215 158 116 39 6 0 0 0 0 0 0 16 23 0 0 0 26 26 17 19 10 75 145 110 67 89 86 75 90 80 24 19 0 1 0 0 0 1 2 3 1 0 1
277 209 221 176 131 57 11 0 0 0 0 0 11 50 48 39 89 157 39 57 51 60 120 163 90 68 100 132 136 128 28 5 1 1 0 0 0 0 2 11 0 7 0
262 258 253 244 258 213 180 46 12 0 0 0 34 77 164 153 139 206 116 79 110 149 128 147 128 104 116 159 135 64 15 4 2 0 0 0 2 3 6 0 0 0 0
138 198 244 240 233 212 215 185 121 66 18 4 12 106 177 211 290 220 175 127 155 167 176 161 129 67 71 107 47 28 24 9 9 10 0 0 1 0 1 0 0 0 0
92 141 157 146 167 221 221 254 205 174 143 98 138 119 245 351 370 397 217 175 278 273 181 140 79 40 45 51 46 18 29 10 7 13 4 4 0 0 0 0 0 0 0
34 85 96 92 112 143 241 306 366 324 251 248 179 201 279 326 349 398 422 259 76 22 179 78 55 156 45 28 7 16 15 13 2 21 16 0 0 0 0 0 0 0 0
2 30 8 58 103 110 197 354 402 436 416 374 314 347 394 525 561 572 483 210 19 24 130 125 134 180 30 29 13 5 21 11 0 10 0 0 0 0 0 0 0 0 0
2 0 4 25 116 132 233 331 431 513 471 429 357 423 455 581 598 462 412 55 184 154 162 192 140 70 98 31 46 17 6 7 7 0 0 0 0 0 0 0 0 0 0
2 0 0 8 37 209 278 351 487 548 548 505 466 481 516 561 519 352 411 169 173 168 98 363 181 48 0 22 8 3 2 7 0 0 0 0 0 0 0 0 0 0 0
4 0 2 40 87 248 425 489 630 643 624 552 561 617 563 337 336 299 159 171 315 274 263 69 83 28 42 18 10 2 0 0 0 0 0 0 0 0 0 0 0 0 0
2 92 92 113 155 394 611 752 811 803 776 662 574 547 483 337 183 286 174 96 20 69 138 63 42 23 24 11 11 0 0 1 0 0 0 0 0 0 0 0 0 0 0
9 45 66 131 245 403 546 719 853 981 810 601 487 407 342 114 57 104 49 10 14 10 8 31 19 34 7 11 1 0 1 0 0 0 0 0 0 0 0 0 0 0 0
16 50 75 117 211 367 530 640 709 672 483 466 311 187 0 1 8 4 7 9 19 8 21 21 31 22 7 0 0 0 0 0 0 0 0 0 0 0 0 0 0 0 0
30 58 90 136 280 411 482 511 434 338 238 113 0 1 3 3 10 20 2 6 11 15 25 28 14 3 3 0 0 0 0 0 0 0 0 0 0 0 0 0 0 0 0
25 31 35 46 64 71 54 40 26 10 0 0 0 2 3 2 4 2 15 7 9 17 9 13 3 10 5 5 0 0 0 0 0 0 0 0 0 0 0 0 0 0 0
4 1 0 1 0 0 0 0 0 0 0 0 1 1 0 0 1 4 9 14 14 11 2 0 6 6 3 0 0 0 0 0 0 0 0 0 0 0 0 0 0 0 0
0 0 0 0 0 0 0 0 0 0 0 0 0 0 0 0 8 6 7 5 9 6 0 0 0 0 0 0 0 0 0 0 0 0 0 0 0 0 0 0 0 0 0
0 0 0 0 0 0 0 0 0 0 0 0 0 0 0 0 0 0 0 5 1 0 0 0 0 0 0 0 0 0 0 0 0 0 0 0 0 0 0 0 0 0 0
0 0 0 0 0 0 0 0 0 0 0 0 0 0 0 0 0 0 0 0 0 0 0 0 0 0 0 0 0 0 0 0 0 0 0 0 0 0 0 0 0 0 0

GFSMW_con_mucape_087.txt.gz
CAPE
0 4 16 8 15 5 25 4 10 15 17 24 0 2 28 0 0 49 64 41 74 136 110 21 34 48 30 33 18 2 0 0 0 0 0 0 0 0 0 0 0 0 0
0 0 1 5 14 7 5 0 8 11 24 5 30 36 22 6 11 5 2 36 42 68 93 70 63 52 59 65 52 8 0 0 0 0 0 0 0 0 0 0 0 0 0
0 3 1 4 0 1 3 0 0 9 6 13 4 4 10 4 1 8 7 2 32 13 27 87 62 75 67 71 61 22 2 2 0 0 0 0 0 0 0 0 0 0 0
0 0 1 1 2 0 0 0 0 0 0 5 4 1 1 0 0 1 6 3 0 5 2 7 44 70 84 65 69 26 5 4 0 0 0 0 0 0 0 0 0 0 0
34 0 0 0 0 0 0 0 0 0 0 0 0 0 0 0 0 0 0 0 0 0 0 2 11 49 89 120 76 8 22 19 37 24 14 1 0 0 0 0 0 0 0
60 3 0 0 0 0 0 0 0 0 0 0 0 0 0 0 0 0 0 0 0 0 0 0 16 46 86 119 101 31 35 32 42 34 32 22 18 19 5 0 0 0 0
46 64 2 0 0 0 0 0 0 0 0 0 0 0 0 0 0 0 0 0 0 0 0 2 22 42 87 118 105 49 41 45 59 59 17 30 0 7 0 0 0 0 0
72 92 76 12 14 0 0 0 0 0 0 0 0 0 0 0 0 0 0 0 0 0 4 1 7 32 106 147 87 28 43 66 16 49 3 2 1 0 0 0 0 0 8
88 95 176 122 140 88 14 0 0 0 0 0 0 0 0 0 0 0 0 0 0 1 1 2 1 26 154 161 133 76 72 72 64 40 4 3 1 0 0 0 0 0 1
49 87 122 191 164 177 146 72 23 0 0 0 0 0 0 0 0 0 0 0 12 23 8 20 18 31 120 87 104 89 126 116 73 11 2 1 4 18 0 0 0 2 1
17 46 112 207 191 178 174 168 115 16 3 3 0 0 5 10 14 0 6 29 54 120 153 50 60 80 53 46 79 61 82 108 27 31 2 7 18 11 0 0 0 6 3
35 45 84 152 198 149 118 140 168 127 80 3 8 1 0 0 0 46 129 170 177 158 173 86 56 25 37 114 73 88 108 137 40 19 32 12 14 27 14 5 0 0 0
45 47 71 97 125 131 102 81 142 174 136 93 54 40 52 43 37 65 86 161 246 247 79 64 14 44 122 152 98 42 91 74 11 3 23 17 2 0 8 0 0 0 0
48 62 61 79 96 93 95 70 108 159 179 193 237 210 164 150 123 138 128 164 270 177 0 0 0 4 106 61 36 34 81 103 75 2 4 20 6 11 1 0 0 0 0
0 9 55 78 75 67 60 56 65 100 127 143 217 237 241 265 220 171 140 159 164 182 81 6 34 26 155 70 64 45 20 129 33 12 0 2 6 0 0 0 0 0 0
0 1 15 47 60 66 68 40 48 62 77 137 225 257 278 264 232 205 189 247 323 362 219 40 52 52 222 138 93 43 30 24 1 3 15 2 0 0 0 0 0 0 0
0 4 4 1 26 57 76 72 78 109 128 193 286 341 324 265 282 317 276 543 164 420 249 78 151 266 97 144 91 3 2 18 3 18 9 0 0 0 0 0 0 0 0
0 11 15 0 0 19 71 118 140 166 230 364 410 368 357 422 400 316 194 88 243 68 97 133 158 181 96 54 64 47 7 0 5 4 0 1 1 0 0 0 0 0 0
2 12 21 31 51 71 87 167 256 300 434 452 420 398 295 305 218 146 78 28 51 27 44 23 30 59 46 12 13 4 1 4 6 0 0 0 0 0 0 0 0 0 0
30 29 26 51 75 89 142 217 367 484 578 584 458 297 190 142 79 28 16 37 25 7 12 16 21 30 27 0 8 5 0 5 0 0 0 0 0 0 0 0 0 0 0
12 12 24 58 105 129 186 310 399 500 526 448 238 93 46 0 3 4 2 6 12 14 6 12 15 27 18 10 1 1 0 0 0 0 0 0 0 0 0 0 0 0 0
3 9 52 89 142 169 199 226 230 181 110 42 21 2 0 1 0 1 10 12 7 5 12 7 7 1 10 10 4 0 0 0 0 0 0 0 0 0 0 0 0 0 0
12 20 28 36 31 22 10 2 2 0 0 0 0 0 0 0 0 0 5 0 0 0 4 1 15 15 11 7 0 0 0 0 0 0 0 0 0 0 0 0 0 0 0
14 21 22 1 0 0 0 0 0 0 1 3 0 0 0 0 0 3 1 0 0 4 0 0 3 1 0 0 0 0 0 0 0 0 0 0 0 0 0 0 0 0 0
3 0 1 1 0 0 0 0 0 0 0 0 0 0 0 0 0 0 0 0 3 4 9 7 5 2 0 0 0 0 0 0 0 0 0 0 0 0 0 0 0 0 0
0 1 1 0 0 0 0 0 0 0 0 0 0 0 0 0 0 0 0 4 2 0 0 0 0 0 0 0 0 0 0 0 0 0 0 0 0 0 0 0 0 0 0

GFSMW_con_mucape_090.txt.gz
CAPE
2 2 0 2 33 12 9 9 40 46 17 10 17 12 0 40 75 73 51 27 58 85 79 35 14 13 23 28 22 13 30 0 0 0 0 0 0 0 0 0 0 0 0
2 7 0 0 1 3 3 0 59 14 18 16 5 7 2 83 66 20 35 42 45 65 28 31 20 23 22 15 8 43 52 7 0 0 0 0 0 0 0 0 0 0 0
6 1 7 0 1 0 1 4 6 1 1 0 5 4 4 49 65 81 56 29 72 115 130 98 40 28 59 29 21 46 53 41 0 0 0 0 0 0 0 0 0 0 0
7 0 1 3 0 0 4 0 14 13 16 11 0 10 18 8 5 0 55 85 67 50 107 103 98 86 51 45 37 47 45 53 11 1 0 0 0 0 0 0 0 0 0
31 1 0 2 0 1 2 0 2 2 11 0 0 0 0 11 9 0 3 2 9 38 30 32 49 43 46 61 63 67 55 42 40 20 13 22 17 12 11 17 2 0 0
19 17 0 0 0 0 0 0 0 0 0 0 0 0 0 0 0 0 0 0 0 0 0 0 0 2 20 43 77 59 55 73 44 37 45 17 20 1 16 6 0 3 2
21 36 7 0 0 0 0 0 0 0 0 0 0 0 0 0 0 0 0 0 0 0 0 0 0 0 20 42 50 61 71 74 64 51 66 16 26 8 4 0 1 2 2
15 52 50 24 0 0 2 0 0 0 0 0 0 0 0 0 0 0 0 0 0 0 0 0 0 0 1 9 16 31 69 86 80 89 68 55 9 21 5 0 4 0 0
16 47 68 91 71 33 11 0 0 0 0 0 0 0 0 0 0 0 0 0 0 0 0 0 0 0 0 5 11 11 46 90 85 76 91 98 41 18 0 4 3 1 0
2 31 75 65 101 105 72 44 4 0 0 0 0 0 0 0 0 0 0 0 1 1 0 0 5 3 6 9 23 39 83 99 90 102 117 130 76 31 1 6 15 9 0
0 16 47 73 77 104 150 125 106 24 0 0 0 0 0 0 0 0 0 0 0 0 0 0 5 11 51 80 58 60 63 92 77 107 103 128 39 39 0 6 14 1 8
0 0 0 26 57 68 118 110 82 111 118 14 0 0 0 0 0 0 0 0 0 0 7 23 32 59 53 116 78 56 42 0 0 54 118 114 102 13 1 3 10 0 1
0 0 12 31 51 84 86 101 95 82 85 106 16 1 0 0 1 0 0 15 32 52 89 115 109 141 140 62 67 43 0 73 28 66 102 100 66 7 16 1 15 8 7
0 2 16 64 64 81 105 99 88 87 72 127 148 141 103 88 70 27 36 56 65 54 64 50 114 9 30 0 8 17 73 100 131 118 125 114 47 4 3 15 2 1 2
8 0 7 30 50 61 84 93 89 65 38 38 57 92 103 112 155 181 152 115 83 86 101 96 93 166 101 10 17 18 16 142 54 65 83 59 4 1 0 0 3 3 0
30 4 0 7 31 63 82 86 74 74 55 27 4 36 79 103 160 155 126 107 128 134 105 199 363 338 123 68 43 30 99 67 80 8 44 14 2 5 0 4 0 0 0
19 5 0 0 0 6 75 86 81 69 62 52 41 52 80 124 122 116 126 103 128 438 354 145 177 157 275 77 50 124 88 117 93 43 11 9 0 1 0 0 0 0 0
0 4 0 0 1 8 20 37 46 53 53 55 65 94 108 143 164 184 196 381 306 187 128 109 152 95 93 53 65 68 95 11 11 24 24 1 2 3 3 4 0 0 0
0 0 0 7 10 4 9 35 56 79 99 118 148 129 157 149 173 353 205 119 103 130 15 48 20 23 34 11 20 4 6 12 14 4 0 3 7 0 0 0 0 0 0
0 3 13 13 17 19 43 66 89 135 185 260 302 164 165 135 140 121 131 93 32 20 12 17 8 4 17 19 24 17 13 7 0 0 0 0 1 0 0 0 0 0 0
4 4 5 23 18 38 80 113 145 245 316 399 371 230 177 141 107 43 8 1 8 5 10 6 5 5 6 5 8 2 2 0 1 4 0 0 0 0 0 0 0 0 0
3 11 14 22 96 156 192 204 203 128 119 150 153 76 27 1 0 0 4 7 0 5 4 2 6 6 13 14 8 0 0 2 2 0 0 0 0 0 0 0 0 0 0
4 32 52 62 72 73 62 52 8 3 3 1 0 2 0 0 0 0 0 0 0 0 0 0 6 0 7 6 5 5 2 0 0 0 0 0 0 0 0 0 0 0 0
23 22 15 9 11 3 0 0 0 0 0 0 0 0 0 0 0 0 0 0 0 0 0 0 0 0 0 0 1 0 0 0 0 0 0 0 0 0 0 0 0 0 0
0 0 0 1 2 0 0 0 0 0 0 0 0 0 0 0 0 0 0 0 0 0 0 0 0 1 0 0 0 0 0 0 0 0 0 0 0 0 0 0 0 0 0
1 0 0 0 0 0 1 0 0 0 0 0 0 0 0 0 0 0 0 0 0 0 0 0 0 0 0 0 0 0 0 0 0 0 0 0 0 0 0 0 0 0 0

GFSMW_con_mucape_093.txt.gz
CAPE
0 0 1 0 20 14 10 6 29 12 4 25 24 4 26 12 12 71 49 60 77 89 63 35 44 21 21 37 31 43 51 74 75 0 0 0 0 0 0 0 0 0 0
0 0 11 0 0 12 0 1 0 4 6 9 9 25 6 2 1 56 48 68 72 97 118 92 60 59 28 30 31 23 48 56 44 0 0 0 0 0 0 0 0 0 0
0 2 9 1 1 0 0 0 0 12 3 4 17 14 6 2 1 49 21 47 45 64 68 87 90 74 53 23 20 31 31 46 43 1 0 0 0 0 0 0 0 0 0
0 6 3 1 4 0 0 1 0 19 2 1 24 9 19 0 1 5 19 1 32 53 65 39 63 74 67 30 16 26 17 44 36 38 3 2 0 2 0 1 3 4 0
0 13 0 2 0 0 0 0 0 4 0 5 7 3 4 21 11 12 22 11 21 40 50 89 74 128 83 48 49 65 33 46 50 47 28 24 11 5 1 3 0 0 5
0 18 3 4 0 0 0 0 0 3 1 9 6 0 0 6 11 13 1 0 1 0 41 35 79 114 101 44 65 68 62 57 57 59 48 26 28 23 6 0 12 6 0
0 10 33 0 0 0 0 0 0 0 1 2 3 0 0 1 0 0 2 0 0 1 0 49 74 83 73 51 57 47 56 58 59 49 39 49 31 40 34 25 11 0 1
3 4 47 28 0 0 0 0 0 0 0 0 0 0 0 0 0 1 3 0 0 7 0 6 34 38 41 35 12 2 5 17 34 44 32 40 56 66 35 52 11 1 0
9 10 52 72 53 9 1 0 0 0 0 0 0 0 0 0 0 0 0 0 0 0 0 0 0 1 1 5 8 17 4 1 2 10 8 27 61 30 55 86 43 10 0
0 7 31 76 108 105 55 3 0 1 0 0 0 0 0 0 0 0 0 0 0 0 0 0 0 0 0 0 0 1 0 0 5 24 23 14 42 48 57 72 46 0 0
0 2 26 56 83 109 127 121 38 0 0 0 0 0 0 0 0 0 0 0 0 0 0 0 0 0 2 0 0 0 11 67 59 46 42 45 30 69 93 82 23 7 4
0 1 31 49 78 90 91 91 120 103 57 11 0 0 0 0 0 0 0 0 0 0 0 0 0 3 2 3 0 0 20 45 68 57 18 3 0 0 7 72 38 26 1
0 0 1 10 29 58 47 49 44 62 59 70 70 24 0 0 0 7 2 0 0 0 0 0 0 2 11 24 62 92 79 77 1 4 20 6 0 1 8 7 26 19 11
0 0 1 15 35 46 46 32 32 27 31 53 67 65 76 32 3 0 1 13 1 0 0 0 9 9 11 27 42 2 3 52 0 38 32 8 31 37 20 15 28 56 0
15 7 7 17 35 42 46 64 45 37 36 30 36 42 44 70 72 78 110 113 100 98 69 46 47 59 40 27 100 79 173 63 1 2 15 22 51 115 65 66 45 12 0
7 11 3 0 6 31 34 54 59 73 59 47 47 40 31 47 63 62 94 150 130 98 78 80 72 219 131 141 81 84 96 147 40 7 1 76 34 97 35 33 11 40 0
21 15 17 1 0 5 18 55 60 61 67 60 64 68 55 36 53 100 104 121 125 73 133 117 113 129 124 107 72 62 54 103 67 58 54 47 15 0 0 2 0 5 0
1 22 24 16 3 2 4 2 24 61 87 77 76 74 69 86 111 136 123 85 111 128 141 121 131 152 83 56 50 84 36 47 11 33 53 68 17 0 0 7 6 1 0
12 20 18 14 3 2 4 1 7 27 52 91 118 128 130 138 164 96 95 120 133 105 79 89 63 82 15 18 8 13 2 1 3 2 13 10 9 0 0 0 0 0 0
1 3 11 11 5 6 21 57 91 117 132 158 171 232 171 152 114 71 55 59 101 71 45 31 10 10 3 3 0 0 1 0 9 6 0 0 0 0 0 2 3 0 0
0 0 4 18 9 32 39 15 66 74 90 115 159 171 172 130 72 53 38 23 31 24 0 2 1 2 0 1 0 0 2 0 2 1 0 0 0 0 0 0 0 0 0
0 0 4 19 46 74 25 59 45 45 52 88 91 80 50 26 8 1 0 0 0 0 0 0 0 0 0 0 0 0 6 3 1 0 0 0 0 0 0 0 0 0 0
0 0 0 2 11 12 55 16 1 1 11 7 3 4 0 0 0 0 0 0 0 0 0 0 0 0 0 0 1 2 0 0 0 0 0 0 0 0 0 0 0 0 0
12 3 0 0 0 0 0 0 0 0 0 0 0 0 0 0 0 0 0 0 0 0 0 0 0 0 2 2 0 0 0 0 0 0 0 0 0 0 0 0 0 0 0
15 5 0 0 0 0 0 0 0 0 0 0 0 0 0 0 0 0 0 0 0 0 0 0 0 0 0 0 0 0 0 0 0 0 0 0 0 0 0 0 0 0 0
7 2 2 5 5 0 0 0 0 0 0 0 1 0 0 0 0 0 0 0 0 0 0 0 0 0 0 0 0 0 0 0 0 0 0 0 0 0 0 0 0 0 0

GFSMW_con_mucape_099.txt.gz
CAPE
320 423 223 134 45 12 9 0 0 0 0 0 0 0 18 50 55 89 68 28 11 19 2 18 102 176 74 35 40 61 129 19 24 9 8 21 1 0 0 0 2 2 0
315 366 235 134 20 7 3 0 1 2 0 0 0 7 6 7 39 43 46 19 4 5 5 40 129 144 82 84 115 160 61 34 9 26 32 18 0 0 0 0 0 1 0
243 411 198 133 129 13 4 0 0 9 2 7 1 29 24 32 26 38 27 23 23 16 3 66 147 161 161 149 174 177 126 54 18 39 38 2 0 0 0 0 0 0 0
3 445 298 63 157 40 11 16 0 3 1 4 0 0 3 22 17 9 25 21 5 12 66 88 172 208 193 176 157 128 156 148 35 25 39 33 21 83 37 0 2 6 6
18 374 366 87 88 138 10 0 0 0 0 8 8 0 2 16 15 4 10 13 33 7 85 121 190 252 180 223 231 175 151 125 139 31 3 0 6 35 31 32 18 0 14
114 309 415 107 71 67 52 11 0 0 0 6 1 2 2 3 0 8 0 20 24 53 82 94 179 197 217 218 209 172 117 163 223 190 150 10 18 10 28 21 22 18 6
174 376 425 204 84 62 14 6 2 0 0 0 0 5 6 14 4 2 9 12 2 2 0 50 79 114 157 169 203 166 256 227 232 228 207 218 143 121 32 24 17 10 0
257 421 436 303 180 163 115 7 5 6 0 0 0 0 3 1 5 4 15 4 9 116 2 2 0 0 66 76 174 320 174 190 303 409 437 323 241 200 66 11 1 0 0
280 437 448 408 224 233 146 68 31 8 3 0 7 11 12 0 0 4 1 73 70 84 102 80 55 61 72 104 66 107 126 193 264 513 491 364 375 342 299 189 0 2 0
186 410 464 504 329 225 171 93 66 50 10 9 2 0 11 18 10 33 43 66 77 47 55 71 60 66 68 86 115 133 178 192 251 292 363 331 310 193 163 53 4 5 0
117 366 501 536 425 277 180 137 92 52 37 21 10 15 12 15 15 31 49 41 51 64 63 68 82 93 108 132 173 174 163 163 217 297 307 303 351 311 222 29 8 0 7
71 252 512 551 508 306 194 170 117 68 70 45 20 9 12 11 12 15 24 47 50 55 40 35 20 37 52 90 117 170 136 199 253 309 354 301 130 63 18 88 30 13 30
197 278 508 603 590 422 267 182 88 66 29 44 68 40 25 12 8 12 44 38 36 32 28 32 52 44 67 96 174 207 229 245 289 342 312 114 19 29 42 64 26 16 28
49 263 439 589 619 575 419 272 114 46 28 18 34 42 39 31 48 49 28 145 69 32 26 66 69 124 26 26 69 80 183 215 181 146 38 29 48 73 68 37 35 7 34
40 132 327 489 622 622 569 434 322 130 50 50 46 55 49 77 41 40 41 19 20 16 22 16 13 24 34 25 50 36 20 33 54 83 61 55 57 60 82 37 25 14 37
9 47 114 331 434 518 585 505 431 364 219 157 120 85 77 73 77 85 86 41 24 17 18 14 25 53 0 0 14 27 32 34 78 85 81 119 96 63 74 72 42 46 48
3 23 60 131 294 546 499 537 491 494 354 265 209 159 134 112 103 92 71 93 81 55 18 28 60 65 71 55 39 41 65 159 150 80 58 106 51 43 30 4 3 0 1
35 36 22 45 85 410 588 548 538 508 457 356 263 228 189 152 129 117 85 69 58 87 77 70 75 68 139 146 144 118 109 122 104 92 80 67 16 20 6 0 0 0 0
4 0 15 9 9 124 488 589 624 583 457 364 296 232 241 135 95 79 82 98 95 78 75 65 116 236 213 220 168 140 117 80 41 71 83 56 29 0 0 0 0 0 0
18 15 41 77 61 105 289 501 449 354 273 241 173 135 111 108 118 127 115 105 110 141 115 85 160 183 196 244 163 102 64 58 114 75 61 0 0 0 0 0 0 0 0
0 0 3 42 5 5 47 160 175 201 168 139 105 92 103 145 165 168 170 140 206 204 202 221 178 128 167 111 73 129 121 120 98 0 0 0 0 0 0 0 0 0 0
0 0 0 0 0 0 0 0 1 8 7 5 54 118 100 116 120 116 157 182 150 94 173 133 82 81 35 31 12 2 0 0 0 0 0 0 0 0 0 0 0 0 0
0 0 0 0 0 0 0 1 5 20 34 15 5 13 21 51 33 22 14 27 9 8 4 0 0 0 0 0 0 0 0 0 0 0 0 0 0 0 0 0 0 0 0
0 0 0 0 0 0 0 3 7 4 18 6 0 2 2 0 0 0 0 0 0 0 0 0 0 0 0 0 0 0 0 0 0 0 0 0 0 0 0 0 0 0 0
0 0 21 0 2 0 0 2 3 4 5 0 0 0 0 0 0 0 0 0 0 0 0 0 0 0 0 0 0 0 0 0 0 0 0 0 0 0 0 0 0 0 0
9 6 34 12 0 0 1 2 2 1 0 0 0 0 0 0 0 0 0 0 0 0 0 0 0 0 0 0 0 0 0 0 0 0 0 0 0 0 0 0 0 0 0

GFSMW_con_mucape_102.txt.gz
CAPE
143 673 420 351 74 30 3 5 2 2 0 0 0 5 1 10 114 76 32 14 15 25 44 68 49 38 51 60 71 31 10 0 0 0 0 0 0 0 0 0 0 0 0
353 643 410 301 18 0 9 1 3 0 0 0 3 0 0 0 34 99 45 32 5 12 23 31 42 65 14 1 45 33 22 23 14 8 0 0 0 4 0 0 0 0 0
326 559 396 289 29 0 40 13 0 0 0 0 0 0 0 27 51 88 45 11 10 7 8 4 4 1 22 42 62 58 51 53 38 25 1 2 0 0 0 0 0 0 0
10 546 391 311 77 1 21 12 46 0 0 0 0 0 0 2 6 55 20 31 20 9 14 10 11 2 26 60 63 99 122 82 59 31 22 19 13 16 0 0 0 0 0
0 582 360 278 177 1 22 141 13 33 0 0 0 16 0 34 29 28 6 27 3 14 24 8 10 2 7 96 93 118 113 81 63 47 27 31 17 12 0 0 0 0 0
0 454 425 225 130 62 26 46 60 73 0 0 0 0 13 4 11 18 27 23 20 17 6 8 2 36 49 76 93 116 100 113 67 41 29 17 13 3 0 0 0 1 2
194 352 413 210 46 56 8 14 20 13 3 0 0 6 3 1 1 6 11 10 7 9 7 7 0 3 2 13 89 130 98 82 106 117 102 50 22 24 10 0 0 0 0
320 306 441 212 57 37 3 16 37 12 3 0 0 0 0 0 4 0 0 0 0 4 3 2 3 0 37 70 70 48 89 111 112 121 91 85 80 77 48 3 0 0 0
186 353 472 283 124 41 13 21 22 17 10 1 0 0 0 0 3 2 0 0 1 0 3 3 2 33 3 24 54 45 52 84 65 58 84 39 69 114 99 43 19 1 1
247 416 451 434 277 151 78 14 9 2 0 0 0 0 0 0 0 0 0 1 0 8 13 11 1 5 12 12 39 34 48 57 52 59 47 81 54 115 138 90 70 42 6
99 435 450 522 329 231 173 53 26 6 2 8 4 3 0 0 0 0 0 1 1 0 19 22 15 12 6 13 17 10 21 16 19 19 23 14 54 88 98 112 105 69 33
53 395 467 621 428 254 172 83 59 44 18 7 37 5 0 1 5 0 0 0 13 6 2 5 12 4 0 2 6 15 26 39 39 29 72 64 83 104 103 93 86 71 61
47 249 487 646 541 363 240 113 78 49 37 28 17 2 5 8 4 3 9 13 13 15 13 14 5 1 2 8 12 12 18 19 42 77 94 95 89 76 92 109 85 71 39
20 319 457 629 625 465 352 213 110 74 59 38 32 24 17 5 2 0 0 0 3 7 11 16 19 17 22 25 24 27 26 50 80 78 63 62 70 74 39 22 13 3 1
3 64 434 562 715 634 484 322 210 110 78 62 78 77 65 54 41 22 22 6 17 8 13 18 27 39 39 31 20 40 64 42 40 42 51 51 51 59 21 58 6 45 57
6 0 123 407 612 758 630 451 335 170 98 73 61 78 121 102 91 110 107 93 62 50 27 31 28 20 18 12 34 36 73 33 33 66 93 87 79 67 111 31 51 0 9
13 0 25 83 503 657 717 641 521 324 201 86 107 100 119 112 105 114 100 77 76 61 62 61 58 62 25 24 61 81 71 76 106 113 118 119 100 77 32 53 10 8 4
0 14 65 73 35 555 637 668 597 508 328 236 213 172 129 124 139 112 91 110 105 116 82 63 51 56 69 69 58 66 59 103 123 121 93 114 82 72 19 26 15 9 1
78 36 41 79 21 305 599 605 504 562 449 338 276 213 255 139 120 132 120 133 118 133 78 56 61 88 60 67 79 74 114 109 140 71 109 79 17 5 21 45 2 0 0
37 41 104 118 80 161 540 545 621 571 495 389 290 255 216 173 167 153 172 133 114 108 108 107 123 124 122 110 156 162 154 111 58 13 14 14 10 3 0 0 0 0 0
0 0 46 48 75 150 351 503 557 565 513 415 360 287 255 297 252 231 165 152 239 118 190 125 127 138 130 129 134 94 57 10 5 23 23 6 0 0 0 0 0 0 0
3 0 0 0 0 29 191 394 435 537 500 447 375 318 259 143 224 274 108 178 114 109 163 158 144 123 91 76 33 15 14 5 0 0 0 0 0 0 0 0 0 0 0
0 0 0 0 0 0 2 143 304 358 356 287 254 214 107 51 25 96 168 241 79 44 49 10 14 5 4 4 0 0 0 0 0 0 0 0 0 0 0 0 0 0 0
0 0 0 0 0 0 0 0 1 44 96 147 81 39 29 41 32 3 4 20 9 9 6 0 0 0 0 0 0 0 0 0 0 0 0 0 0 0 0 0 0 0 0
0 0 0 0 0 0 0 0 0 0 0 3 18 57 20 10 15 6 5 4 0 0 0 0 0 0 0 0 0 0 0 0 0 0 0 0 0 0 0 0 0 0 0
3 4 0 3 0 0 0 11 8 13 19 16 3 0 10 3 2 0 0 0 0 0 0 0 0 0 0 0 0 0 0 0 0 0 0 0 0 0 0 0 0 0 0

GFSMW_con_mucape_105.txt.gz
CAPE
43 319 252 263 193 109 38 0 1 8 1 0 0 6 42 57 38 12 55 108 87 38 28 65 50 86 65 52 36 52 26 0 0 0 0 0 0 0 0 0 0 0 0
178 328 283 274 172 86 0 0 8 35 2 0 0 0 0 31 69 25 18 92 24 9 20 21 40 62 52 84 67 64 42 3 0 0 1 0 0 0 0 0 0 0 0
237 404 371 303 195 35 0 0 22 0 0 0 0 0 0 0 28 85 49 19 32 30 3 11 34 51 42 44 40 60 66 5 0 0 8 0 0 0 0 0 0 0 0
322 473 386 239 118 3 0 5 34 1 0 5 3 2 1 0 0 20 25 26 24 22 10 10 27 38 33 25 11 34 55 20 23 12 32 9 15 4 0 0 2 0 0
207 389 300 193 56 0 0 0 36 82 0 12 0 0 4 0 2 18 42 7 18 8 11 7 25 25 10 3 6 15 58 59 50 35 26 35 43 13 3 0 10 0 0
178 295 272 171 93 3 0 0 74 10 0 10 11 0 0 2 6 9 1 10 27 6 12 5 1 15 4 3 4 39 62 52 64 79 66 29 43 37 27 4 2 1 0
164 271 305 226 103 12 0 0 31 11 4 3 0 0 1 9 5 11 17 10 13 17 15 13 14 13 7 7 6 0 23 39 63 71 50 53 29 34 33 17 10 3 1
299 355 311 211 139 21 0 0 1 19 2 0 15 0 0 0 8 11 37 24 16 13 21 12 6 17 3 20 22 3 5 52 49 45 68 59 52 42 39 22 30 7 2
457 393 312 233 139 32 2 0 0 1 1 0 3 0 0 0 3 4 31 10 26 11 26 8 6 2 8 24 0 95 3 36 46 47 49 66 51 57 41 35 26 28 7
330 360 327 250 220 84 17 0 0 1 1 0 1 0 0 0 0 1 0 0 0 6 21 1 3 11 8 0 0 0 24 0 0 19 28 37 26 16 28 26 9 12 12
217 409 361 338 325 208 5 0 0 0 1 0 0 0 0 0 0 1 0 0 0 0 4 11 20 13 11 11 12 15 10 43 26 40 50 28 27 28 11 13 11 5 16
122 409 464 408 359 284 71 0 0 0 0 1 0 0 0 0 0 0 0 0 0 0 0 4 12 2 10 11 5 0 0 13 1 2 13 15 24 16 7 0 6 22 50
1 120 517 434 389 340 173 27 0 0 0 0 0 0 1 0 0 0 0 0 0 0 0 0 2 0 0 0 0 0 1 4 12 27 44 47 45 51 57 66 68 54 69
0 131 490 466 439 371 299 130 16 3 4 0 9 5 9 0 0 0 0 0 0 0 0 0 6 12 5 0 1 8 9 18 34 45 34 42 45 40 52 42 35 70 55
0 2 57 398 449 398 363 254 80 38 31 1 0 12 13 6 1 0 0 0 0 2 4 2 9 12 10 7 11 27 35 31 35 20 16 24 43 76 80 22 7 40 22
0 0 9 184 352 476 431 388 240 66 42 25 14 7 15 26 33 17 0 2 7 9 18 19 24 15 16 17 19 25 25 37 82 79 105 99 51 36 12 9 10 67 15
2 9 0 19 3 313 485 452 441 312 95 64 50 26 24 19 21 40 40 24 14 32 27 50 42 57 35 57 76 65 78 86 93 54 45 27 24 21 30 46 0 16 2
42 33 37 9 45 314 434 437 451 421 266 147 65 65 82 73 60 108 78 88 84 106 72 91 74 64 59 59 33 34 49 24 32 42 37 35 56 35 25 0 0 0 0
44 49 30 25 84 406 440 202 460 489 358 315 107 31 77 134 137 129 223 198 198 131 108 71 52 36 43 72 59 26 54 67 61 73 72 71 36 0 0 0 8 5 2
11 21 28 77 115 122 47 336 453 476 450 374 259 120 134 133 124 232 285 204 170 152 86 88 83 126 97 86 95 92 63 101 55 102 3 0 0 0 9 7 0 0 0
9 10 19 9 19 394 464 549 585 572 487 386 283 243 254 224 286 252 165 177 185 321 185 182 161 129 91 91 85 36 53 42 43 6 0 1 3 0 0 0 0 0 0
0 7 9 5 4 19 264 440 474 574 503 362 335 326 332 300 312 286 279 217 209 288 298 186 175 163 70 41 39 22 0 0 2 1 0 0 0 0 0 0 0 0 0
0 0 0 0 0 0 6 150 327 281 414 274 232 296 271 294 253 232 192 126 123 313 170 235 52 19 26 9 0 2 7 1 0 0 0 0 0 0 0 0 0 0 0
0 0 0 0 0 0 0 0 32 175 120 154 206 178 218 241 273 225 362 194 160 140 90 21 14 26 13 9 7 0 0 0 0 0 0 0 0 0 0 0 0 0 0
1 0 0 0 0 0 0 0 1 9 31 78 156 221 198 251 345 294 167 45 19 0 4 0 1 4 0 0 0 0 0 0 0 0 0 0 0 0 0 0 0 0 0
13 8 3 0 0 0 0 0 0 0 2 34 99 121 248 336 226 15 33 8 0 0 0 0 0 0 0 0 0 0 0 0 0 0 0 0 0 0 0 0 0 0 0

GFSMW_con_mucape_108.txt.gz
CAPE
0 146 586 621 555 489 333 196 17 9 12 0 88 139 80 0 31 39 41 72 78 130 74 4 0 0 0 0 0 0 0 0 0 0 0 0 0 0 0 0 1 0 0
85 250 689 560 453 350 253 46 0 0 4 0 2 51 49 24 8 6 38 93 66 56 21 1 0 0 0 1 0 12 15 0 1 0 0 0 0 0 2 3 9 0 1
119 320 650 506 376 301 154 0 0 2 0 0 0 5 39 52 26 22 61 45 24 47 23 15 2 1 0 0 0 5 9 15 11 0 0 0 0 0 0 5 4 4 10
149 331 561 448 347 282 114 0 0 2 12 0 0 0 0 4 82 30 39 62 74 38 39 41 11 11 7 7 0 0 17 22 17 0 0 0 0 8 0 16 4 2 0
154 330 516 468 380 313 50 0 0 1 2 0 0 0 0 0 9 79 107 26 83 79 71 70 47 28 34 20 13 4 52 66 16 4 0 5 3 10 7 14 34 12 14
67 269 361 498 453 284 1 0 0 1 1 0 2 4 3 0 18 2 8 58 35 71 64 8 30 4 29 43 43 53 47 63 4 29 9 7 0 30 15 42 45 28 16
0 232 393 585 441 151 0 0 1 1 16 13 1 4 0 0 0 8 12 16 7 38 47 15 17 11 38 37 61 47 31 18 6 6 8 8 11 11 4 23 11 9 4
0 209 338 577 382 135 1 0 0 1 1 14 15 0 0 0 4 0 22 27 12 18 10 18 11 12 41 44 39 31 21 7 17 43 30 28 47 28 36 33 36 0 7
122 251 334 533 328 146 0 0 0 0 0 4 35 2 0 0 0 0 8 31 12 20 42 33 4 8 15 23 33 23 23 16 21 15 22 45 47 61 30 33 31 139 0
288 290 448 474 347 150 0 0 0 0 0 2 30 11 0 0 0 0 0 2 9 17 40 32 33 26 20 17 9 14 29 21 2 2 24 34 29 33 39 84 27 31 4
3 306 485 486 310 182 24 0 0 0 0 3 3 70 0 0 0 0 0 0 7 18 27 25 5 36 13 22 36 24 1 3 7 1 6 10 5 13 4 11 23 3 2
0 66 404 411 366 236 118 0 0 0 0 1 1 11 0 0 0 0 0 0 0 0 12 41 28 21 11 11 8 2 9 6 14 24 18 12 24 26 30 33 23 34 44
0 0 308 392 311 323 254 15 0 0 0 0 0 0 1 0 0 0 0 0 0 0 0 0 5 7 2 1 3 11 18 5 9 15 12 37 33 14 12 34 50 57 77
0 1 60 153 249 220 322 160 0 0 0 0 0 0 0 0 0 0 0 0 0 0 0 0 0 1 0 0 1 6 6 24 13 21 20 20 6 0 35 36 42 64 52
0 0 40 151 188 211 231 244 94 0 0 0 0 0 0 0 0 0 0 0 0 0 0 0 0 0 2 5 3 5 15 19 16 12 18 1 7 17 15 6 14 8 19
59 0 8 89 207 210 253 218 190 103 0 5 10 2 2 0 0 0 0 0 0 0 0 1 12 13 12 17 15 15 8 10 28 13 35 33 22 7 7 8 54 43 34
77 65 52 1 0 178 183 240 230 186 98 27 33 18 9 5 9 0 0 2 0 9 31 21 12 19 25 23 23 42 49 40 46 54 54 18 25 58 35 13 30 20 12
64 76 90 51 4 0 65 176 199 177 122 131 72 45 12 18 16 18 12 6 18 0 29 33 40 39 37 38 49 63 59 69 63 11 53 36 20 20 20 7 26 0 0
69 92 67 62 54 42 103 181 155 141 119 86 126 100 62 20 34 33 29 26 52 77 32 36 28 20 24 13 24 28 42 93 58 41 26 13 8 0 2 4 0 0 0
63 80 78 12 46 209 323 310 114 27 67 133 101 122 137 105 83 42 56 55 38 47 40 39 67 69 60 35 33 28 51 51 4 12 22 8 1 0 0 0 0 0 0
0 9 19 13 8 24 224 387 128 47 76 240 114 113 123 162 182 121 94 156 195 95 103 143 95 103 96 84 22 27 25 30 52 21 2 0 0 0 0 0 0 0 0
0 0 0 0 11 6 75 110 284 99 164 279 184 135 138 121 159 168 138 113 115 172 133 114 133 99 33 50 38 25 1 0 17 3 5 1 0 0 0 0 0 0 0
0 0 0 0 1 3 0 75 173 211 305 354 302 225 162 128 113 154 191 178 51 32 79 102 32 13 57 20 6 0 0 9 0 0 0 0 0 0 0 0 0 0 0
0 0 0 0 0 0 0 0 42 137 156 200 195 202 210 211 212 206 197 132 99 9 48 49 49 28 24 18 0 0 0 0 0 0 0 0 0 0 0 0 0 0 0
0 0 1 0 0 0 0 0 2 1 18 67 90 91 145 187 262 276 281 260 251 180 43 22 0 0 4 0 0 0 0 0 0 0 0 0 0 0 0 0 0 0 0
0 0 4 7 0 0 0 0 0 0 0 6 38 69 108 98 162 256 189 129 115 21 0 0 0 0 0 0 0 0 0 0 0 0 0 0 0 0 0 0 0 0 0

GFSMW_con_mucape_111.txt.gz
CAPE
0 0 139 392 352 667 727 514 393 228 64 93 505 42 26 85 3 8 4 27 50 52 33 57 74 14 0 0 0 0 0 0 0 0 0 0 0 0 0 0 0 0 0
0 10 152 391 461 675 646 490 378 205 34 32 239 174 64 34 16 37 59 55 61 16 10 15 37 11 0 0 0 0 0 0 0 0 0 0 0 0 4 2 3 1 1
0 3 198 291 495 666 620 496 331 131 9 10 44 37 62 26 35 25 60 73 77 25 14 7 31 12 0 0 0 0 0 0 0 0 0 0 0 0 2 8 12 23 11
0 11 242 271 503 658 604 414 293 19 0 10 8 20 95 1 6 129 22 64 83 64 39 45 38 44 0 0 0 0 0 0 0 0 0 0 0 0 0 3 13 4 8
0 8 192 261 400 578 548 380 236 0 0 3 6 0 8 172 14 5 49 59 64 71 78 58 65 46 0 0 0 0 3 0 7 7 0 0 0 1 0 0 19 1 12
0 0 73 182 278 491 504 343 203 0 1 5 0 0 0 0 18 33 26 23 65 79 86 90 74 28 0 3 0 0 15 39 39 56 43 5 5 0 6 0 21 12 24
0 11 40 197 258 452 458 351 141 0 3 71 4 0 0 0 0 1 18 98 65 70 30 56 95 59 40 4 29 0 31 60 94 94 78 25 9 0 3 8 0 20 30
0 79 50 137 215 384 447 391 73 0 1 6 11 0 2 0 0 0 0 3 39 74 33 43 37 62 43 17 4 19 22 54 73 82 43 2 0 3 7 0 0 0 1
0 0 263 144 186 346 468 401 21 0 1 3 2 6 5 0 2 16 7 6 14 10 18 36 57 45 55 42 36 42 62 56 14 46 40 4 0 17 30 28 37 10 3
0 1 284 286 166 264 483 249 0 0 0 5 2 2 1 0 0 0 1 4 13 21 0 13 49 33 35 28 51 49 53 61 43 22 0 0 2 21 11 38 43 30 52
0 12 87 250 172 293 419 181 0 0 0 1 2 1 0 22 0 0 0 17 12 11 17 18 45 15 35 22 47 31 36 39 14 6 10 13 2 10 36 24 8 0 2
1 1 19 157 284 420 315 152 0 0 0 0 2 1 0 6 0 0 0 0 9 28 27 38 23 24 32 36 52 31 44 5 1 7 0 1 0 14 9 0 15 11 13
0 0 2 50 203 285 277 105 0 0 0 0 2 0 0 0 1 0 0 0 0 0 0 5 17 15 17 40 55 3 11 25 26 1 6 0 2 1 17 39 27 21 7
0 1 3 22 71 135 183 120 20 0 0 0 0 2 1 0 0 0 0 0 0 0 0 0 4 3 6 3 9 26 13 12 4 3 3 11 11 15 20 21 21 2 7
0 1 0 8 87 77 127 126 98 7 0 0 0 2 2 3 0 0 0 0 2 2 0 0 0 2 3 20 14 20 8 6 1 5 9 13 2 11 26 24 16 25 49
0 0 27 0 49 50 149 142 157 113 0 0 0 3 3 4 0 0 0 0 0 0 0 0 0 0 0 0 0 0 0 0 0 7 7 21 14 15 0 12 7 10 11
43 0 0 0 16 39 59 77 90 104 96 0 0 9 1 7 0 0 0 0 0 0 6 7 9 0 0 0 7 6 16 17 28 30 12 10 27 6 4 0 11 12 3
62 45 6 34 20 15 12 39 81 205 112 111 14 7 2 11 0 0 0 0 0 12 0 0 2 1 7 10 24 33 35 37 17 29 10 12 5 1 18 4 13 13 5
79 99 60 97 65 67 7 0 112 197 184 97 76 54 28 13 10 25 12 0 0 0 0 10 0 11 13 35 33 38 31 52 32 15 24 20 10 12 16 1 1 14 0
56 85 90 106 115 63 137 91 134 167 120 48 39 68 95 82 29 39 25 26 38 23 8 0 7 8 30 15 28 48 34 38 37 22 13 20 0 6 12 20 1 0 0
1 6 39 64 57 55 74 116 133 153 102 19 5 36 77 76 56 53 24 8 27 51 14 20 15 3 3 5 13 27 19 21 21 25 19 3 2 19 5 0 0 0 0
0 0 0 0 5 12 8 50 111 125 54 34 30 31 83 111 136 118 63 29 12 3 2 17 19 32 52 34 36 33 29 18 25 7 0 0 0 0 0 0 0 0 0
0 0 0 0 0 0 2 7 39 98 100 37 68 111 76 107 126 143 155 136 35 41 67 21 27 36 62 45 18 15 5 19 16 0 0 0 0 0 0 0 0 0 0
0 0 0 0 0 0 0 0 14 34 62 104 19 12 87 105 88 71 104 108 42 13 14 29 83 2 6 1 15 24 0 0 0 0 0 0 0 0 0 0 0 0 0
0 0 0 0 1 0 0 0 3 5 30 74 106 114 145 145 145 144 127 156 61 44 25 44 25 42 9 0 0 0 0 0 0 0 0 0 0 0 0 0 0 0 0
0 0 0 0 4 5 0 0 0 0 5 23 40 47 101 120 136 163 186 186 124 57 24 0 0 0 0 0 0 0 0 0 0 0 0 0 0 0 0 0 0 0 0

GFSMW_con_mucape_114.txt.gz
CAPE
0 0 0 0 13 248 345 408 596 903 633 353 79 42 40 16 0 5 3 16 3 25 3 17 21 33 84 0 0 0 0 0 0 0 0 0 0 0 0 0 0 0 0
0 0 0 0 97 267 421 498 804 746 492 265 147 53 132 58 9 2 23 3 11 0 17 26 30 2 83 0 0 0 0 0 0 0 0 0 0 0 0 0 0 0 0
0 0 0 0 69 285 427 580 803 653 444 225 121 292 206 50 17 9 9 3 10 38 29 45 51 46 96 0 0 0 0 0 0 0 0 0 0 0 0 0 0 0 7
0 0 0 0 23 193 314 586 736 570 418 163 30 59 107 25 7 4 10 3 25 16 27 15 35 49 84 0 0 0 0 0 0 0 0 0 0 0 0 0 4 8 22
0 0 0 0 9 121 261 521 666 501 379 146 34 88 73 15 41 29 73 19 22 14 48 33 44 32 69 12 0 0 0 0 0 0 0 0 0 0 0 0 14 7 29
0 0 0 29 85 114 240 506 663 524 365 149 17 23 18 50 42 22 30 83 60 40 20 23 28 22 26 52 0 0 0 0 0 0 0 0 6 6 0 0 0 3 4
0 0 0 111 109 137 175 414 661 582 388 150 18 19 23 47 121 32 18 48 41 85 30 16 17 12 25 26 6 0 0 0 0 2 4 19 49 32 3 2 17 0 3
0 0 0 0 269 103 46 265 563 547 409 175 0 0 1 11 11 10 18 33 33 17 18 37 40 36 33 38 51 2 0 9 29 53 61 52 82 62 16 9 3 0 0
0 0 0 0 91 268 74 55 383 509 431 157 0 2 0 0 0 0 0 5 19 42 37 83 62 42 25 21 49 30 0 0 55 95 96 54 62 30 14 13 7 0 0
0 0 0 0 6 221 186 37 185 409 344 38 0 8 4 3 1 0 0 0 0 0 9 37 49 10 38 52 54 31 4 0 0 60 67 57 50 0 1 9 0 0 0
0 0 0 0 14 216 206 95 154 409 269 1 1 10 7 21 1 0 0 0 2 8 13 4 14 35 39 34 27 46 23 9 0 0 42 52 36 0 6 0 0 0 18
0 0 0 0 49 215 265 155 209 397 130 1 3 12 13 10 3 0 0 4 51 9 14 36 27 7 27 26 40 51 16 35 0 0 45 0 3 0 3 24 6 13 2
0 1 1 6 58 319 298 334 365 423 14 0 3 27 8 11 7 0 0 0 3 10 13 7 10 18 35 45 39 43 21 36 53 56 20 29 11 0 3 2 1 3 3
0 4 8 17 28 86 239 254 359 278 7 0 4 10 15 6 23 8 0 2 0 16 2 5 1 18 29 25 42 30 30 22 0 0 0 0 17 2 2 6 0 7 16
0 0 3 0 7 18 114 105 234 201 21 0 3 9 8 6 38 13 8 5 6 4 0 3 4 1 1 9 14 29 44 5 0 19 3 1 1 0 6 4 12 11 24
0 0 0 0 5 0 79 74 127 106 135 0 0 2 2 4 33 21 11 5 4 4 0 0 2 1 11 2 3 1 11 21 7 19 7 4 0 3 14 7 20 20 23
2 0 17 4 0 0 46 62 32 86 117 66 0 1 5 7 22 47 34 56 19 10 15 0 0 1 4 2 8 11 5 12 6 0 0 0 0 5 17 12 10 8 6
6 2 5 50 15 0 6 6 33 60 67 99 11 0 4 5 43 55 14 0 5 21 11 8 8 2 1 3 8 3 4 3 0 9 8 28 21 9 5 7 10 2 3
9 7 14 30 48 16 19 0 25 46 42 70 72 3 0 0 6 46 21 0 3 12 0 10 10 11 0 4 0 20 22 17 39 42 41 13 2 7 8 2 0 0 2
20 7 26 70 92 51 55 20 0 16 62 83 63 44 43 3 0 2 1 8 0 15 10 7 1 4 0 5 34 48 47 45 33 41 29 9 6 8 5 0 0 0 0
1 3 9 8 40 59 48 76 49 46 77 83 22 29 49 44 36 10 10 10 6 6 4 2 0 0 0 5 19 35 26 14 26 19 5 8 14 8 9 9 7 0 0
0 0 0 0 0 0 6 58 67 61 78 112 42 25 41 40 47 26 19 6 7 1 0 4 4 9 7 10 6 4 13 11 24 20 19 9 4 4 1 0 0 0 0
0 0 0 0 0 0 0 14 89 146 90 85 55 84 29 41 75 79 91 86 34 54 43 10 10 11 16 25 18 39 10 11 5 2 0 0 0 0 0 0 0 0 0
0 0 0 0 0 0 0 0 10 81 117 59 23 38 9 1 0 0 0 0 47 16 48 16 9 14 8 0 8 0 5 3 0 0 0 0 0 0 0 0 0 0 0
0 0 0 0 0 1 0 0 0 5 35 83 58 85 17 10 0 1 6 2 7 20 38 13 6 11 1 0 2 2 0 0 0 0 0 0 0 0 0 0 0 0 0
0 0 0 0 0 5 4 0 0 0 0 21 130 232 53 38 46 101 72 50 22 20 11 10 13 0 0 3 0 0 0 0 0 0 0 0 0 0 0 0 0 0 0

GFSMW_con_mucape_117.txt.gz
CAPE
0 0 0 0 0 0 0 182 489 522 456 550 731 864 556 118 15 0 0 16 7 57 76 4 31 26 7 8 6 0 8 0 0 2 0 0 0 0 3 3 3 3 3
0 0 0 0 0 0 114 289 482 307 562 698 933 689 364 23 126 39 13 3 23 18 38 35 13 7 29 1 2 0 0 0 0 0 3 1 0 0 0 2 3 2 2
0 0 0 0 0 0 83 300 423 292 543 830 817 501 226 56 102 41 20 56 1 3 4 40 33 15 24 14 8 0 0 0 1 0 0 12 32 1 0 1 2 2 0
0 0 0 0 0 0 124 337 315 419 695 920 636 411 220 39 320 47 44 14 0 0 16 1 19 12 23 5 19 0 0 0 0 0 0 0 0 1 0 0 0 0 0
0 0 0 0 0 0 85 291 275 473 834 792 585 404 176 277 180 89 112 36 18 4 6 27 53 39 34 4 13 0 0 2 1 0 0 0 0 0 1 33 1 0 0
0 0 0 0 0 5 13 98 257 544 804 707 530 381 170 339 77 85 30 65 19 10 42 44 35 52 17 4 37 0 0 0 0 0 0 0 0 0 2 0 16 34 0
0 0 0 0 0 0 40 72 143 497 741 654 481 355 167 113 77 72 108 105 59 41 5 12 15 11 20 58 71 1 0 0 0 0 0 0 0 0 1 11 0 1 1
0 0 0 0 0 0 2 119 332 498 606 625 442 288 168 54 99 71 91 186 64 12 7 5 20 21 32 57 69 25 0 0 0 0 3 0 0 0 0 1 28 0 43
0 0 0 0 0 0 0 142 459 402 439 608 442 278 41 26 29 30 178 58 69 70 80 13 27 0 9 20 14 49 13 0 0 0 0 0 1 16 25 38 47 20 0
0 0 0 0 0 0 0 156 166 288 413 543 473 230 10 7 45 46 12 21 35 41 47 52 66 36 30 9 13 49 54 31 0 0 0 5 24 47 70 63 34 0 0
0 0 0 0 0 29 175 221 409 205 330 451 460 226 8 3 3 20 1 0 0 26 29 61 63 35 40 36 21 47 45 64 40 0 1 6 89 81 53 0 10 0 0
0 0 0 0 0 1 151 218 298 157 38 381 333 70 10 1 1 8 6 0 2 9 2 23 20 10 12 33 39 47 30 51 38 0 0 1 0 0 0 0 0 9 0
0 0 0 0 2 0 63 133 254 225 129 375 287 4 10 0 0 5 0 6 7 1 11 36 11 28 13 11 8 19 30 37 23 25 0 0 0 0 0 41 0 0 1
0 0 0 0 8 2 29 129 118 119 148 175 34 17 7 0 2 5 5 0 0 3 6 5 8 22 11 18 35 14 13 25 24 47 43 0 0 5 6 0 0 1 0
0 0 1 0 0 3 8 248 47 106 90 216 10 15 6 0 3 6 10 2 4 6 15 11 2 28 4 12 26 40 34 12 31 9 0 1 3 0 4 0 0 0 0
46 9 1 0 0 3 1 115 54 103 121 78 12 11 5 1 2 7 6 4 4 7 0 0 0 9 0 0 21 26 29 38 42 2 0 3 2 0 0 0 3 5 6
0 0 0 0 1 0 18 113 98 84 74 80 9 4 2 1 3 7 14 6 4 0 5 1 0 0 5 0 0 5 25 3 7 27 12 0 1 11 10 14 9 6 10
7 5 0 0 3 3 0 140 59 28 38 59 13 4 1 1 2 4 16 17 17 4 6 3 6 7 8 7 0 3 1 8 2 2 6 14 5 3 3 6 5 9 6
0 1 0 0 8 15 0 1 0 20 35 35 35 31 0 0 2 5 16 8 22 21 36 14 23 0 0 9 9 12 11 12 16 5 1 1 7 5 1 9 12 3 13
0 0 0 0 5 1 1 2 0 2 53 146 73 50 3 2 4 4 2 11 0 8 10 4 3 8 8 4 9 15 9 12 9 12 7 13 19 12 2 10 7 8 0
6 3 0 0 0 0 9 64 33 0 0 111 85 37 10 0 5 5 7 6 3 5 7 9 6 42 1 8 8 30 42 42 47 17 12 9 7 8 3 4 3 2 9
0 0 0 0 0 0 1 10 35 13 0 30 46 44 35 17 33 17 5 3 2 5 2 2 4 6 5 1 0 12 22 24 27 24 19 11 7 6 5 16 6 0 1
0 0 0 0 0 0 0 7 98 66 32 0 28 50 25 16 34 26 17 4 2 0 0 0 0 0 0 0 9 6 4 11 11 7 5 3 12 14 0 0 0 0 0
0 0 0 0 0 0 0 0 14 115 67 12 0 56 59 23 45 22 43 50 31 16 40 67 50 4 2 1 6 13 5 12 0 0 0 0 0 0 0 0 0 0 0
0 0 0 0 0 1 0 0 0 47 156 100 9 33 1 22 35 3 1 0 1 0 1 0 19 7 3 1 3 2 1 0 0 0 0 0 0 0 0 0 0 0 0
0 0 0 0 0 0 1 0 0 2 57 136 147 108 74 0 0 0 0 0 0 9 9 3 0 36 7 7 10 8 0 0 0 0 0 0 0 0 0 0 0 0 0

GFSMW_con_mucape_120.txt.gz
CAPE
0 0 0 0 0 0 0 17 64 323 957 1393 1517 1055 673 575 480 683 456 171 414 271 154 155 193 53 70 33 21 10 233 181 186 173 117 64 107 87 25 28 50 22 14
0 0 0 0 0 42 107 230 410 720 946 947 1145 779 639 512 624 737 143 45 117 304 155 206 63 79 44 19 23 4 131 135 207 88 65 47 43 38 34 32 48 33 19
0 0 0 0 0 39 280 296 425 742 740 915 785 940 628 547 785 375 64 75 250 347 242 105 93 10 27 26 26 3 37 138 143 144 16 25 20 35 44 25 42 47 29
0 0 0 0 0 105 399 371 531 613 535 730 794 1032 955 906 615 407 391 357 312 212 152 23 15 6 2 18 10 12 24 179 139 144 54 45 22 27 40 27 41 45 36
0 0 0 0 0 31 432 516 558 306 867 1028 1106 1206 1213 901 617 257 326 312 49 5 48 0 8 4 3 9 13 14 154 162 155 137 80 58 72 59 38 30 29 57 59
0 0 0 0 0 0 63 200 237 448 504 771 1103 1134 1167 730 692 550 527 367 73 0 0 0 3 13 11 21 9 1 58 143 194 126 130 80 40 64 61 28 37 59 86
0 0 0 0 0 1 0 27 23 292 687 938 701 826 776 585 442 566 456 277 53 0 0 10 1 8 21 13 5 18 111 135 211 193 139 76 26 27 47 58 108 81 52
0 0 0 0 0 2 209 50 73 13 449 997 791 828 642 431 331 483 342 198 74 0 0 12 17 10 30 30 35 6 62 158 259 219 214 94 71 40 28 58 90 96 31
0 0 0 0 0 0 8 291 60 105 9 316 663 801 618 602 453 498 416 469 89 6 12 4 14 22 13 26 44 8 30 58 213 254 257 133 81 75 55 47 94 77 43
0 0 0 0 0 0 0 0 274 58 54 162 672 617 543 488 417 333 491 427 131 75 36 15 4 26 8 5 16 2 39 50 20 140 215 184 76 70 85 80 69 86 96
0 0 0 0 0 0 0 0 8 99 244 95 425 471 450 303 262 56 77 77 41 48 30 20 23 50 5 3 12 29 42 43 28 43 79 62 11 12 36 61 52 65 65
0 0 0 0 0 0 0 0 12 173 127 312 216 493 465 222 201 78 59 25 22 70 54 27 27 59 0 20 17 5 4 0 33 31 10 8 3 8 17 29 48 3 0
0 0 0 4 0 0 0 0 0 103 185 229 328 187 257 176 72 32 38 11 10 4 0 9 25 24 2 4 44 22 3 1 1 10 58 36 19 0 0 0 1 1 0
0 0 1 30 6 0 0 0 1 183 178 168 145 161 169 48 32 54 16 2 32 3 3 6 3 19 31 2 16 18 36 21 6 4 47 50 2 1 0 4 0 0 0
0 0 21 83 16 0 0 5 0 181 122 140 215 95 92 98 59 60 1 3 0 0 2 9 4 2 35 4 5 4 10 11 30 21 40 27 10 0 0 0 2 0 0
26 99 9 2 2 0 0 8 3 106 56 76 83 90 35 56 48 40 3 2 0 2 5 0 1 0 0 6 33 32 17 21 25 15 37 6 16 13 0 0 2 0 0
78 6 0 0 0 0 0 2 26 102 92 92 87 19 36 32 54 26 2 6 4 3 0 0 0 2 0 0 2 13 37 10 2 0 24 32 1 3 2 0 7 7 0
3 0 0 0 0 0 0 0 5 73 132 73 93 12 24 25 45 4 1 6 2 4 2 2 11 1 0 0 0 0 0 5 10 3 8 14 0 0 0 3 3 1 1
7 0 0 0 0 0 0 0 0 22 107 82 90 0 12 20 31 3 2 3 0 2 2 2 1 0 0 0 0 0 1 28 0 0 22 20 3 0 0 3 1 1 0
1 0 0 0 0 0 0 0 0 0 0 62 55 20 15 11 5 4 3 2 2 11 6 4 3 5 3 4 8 5 7 13 9 13 4 13 4 2 9 5 3 2 1
13 17 0 0 0 0 0 0 16 53 0 3 38 46 41 42 6 7 3 2 3 5 14 35 4 4 4 4 8 8 6 5 10 16 12 9 15 10 11 8 7 0 3
1 0 0 0 0 0 0 0 6 73 3 0 2 37 26 31 4 12 4 5 8 1 5 12 8 2 5 1 5 9 6 12 14 2 0 1 1 0 0 2 1 2 6
0 0 0 0 0 0 0 0 1 111 22 0 1 7 14 12 10 22 32 10 27 11 8 6 6 6 6 3 2 3 9 9 0 2 3 8 2 2 4 8 5 0 0
0 0 0 0 0 0 0 0 0 68 39 0 0 0 0 13 16 19 12 15 38 15 11 2 2 1 0 0 0 0 1 0 2 8 5 4 1 0 0 0 0 0 0
1 0 0 0 0 0 2 1 0 7 93 16 0 0 0 1 31 66 42 43 40 31 22 16 43 9 0 0 5 8 11 1 0 1 0 0 0 0 0 0 0 0 0
0 0 0 0 0 0 3 3 2 0 42 65 26 0 0 0 0 6 24 25 4 5 0 0 2 0 0 0 1 2 2 3 1 3 0 0 0 0 0 0 0 0 0

GFSMW_con_mucape_123.txt.gz
CAPE
0 0 0 0 0 0 11 10 27 305 48 370 1322 2261 2441 1719 1242 1793 2161 1968 1496 1613 943 801 431 337 86 230 44 33 23 174 193 161 76 88 87 99 42 14 10 29 28
0 0 0 0 0 0 2 279 248 280 364 383 1043 1848 1919 1074 1129 1374 1420 1454 1363 920 841 679 142 154 293 16 55 15 14 17 195 141 37 76 85 67 34 14 17 61 14
0 0 0 0 0 0 252 436 352 465 732 793 1187 1108 1333 919 1274 1004 780 975 664 896 740 385 126 101 39 127 45 35 16 0 94 121 81 44 54 43 37 52 8 59 33
0 0 0 0 0 0 241 661 630 628 841 1043 1262 989 871 903 907 940 701 822 664 565 466 597 164 92 103 97 25 33 17 11 54 137 131 128 38 44 43 34 20 49 36
0 0 0 0 0 0 5 294 785 772 824 858 1074 910 1122 1171 1184 1282 786 707 672 618 757 590 217 41 67 115 13 16 28 27 74 127 119 145 167 100 52 66 32 23 40
0 0 0 0 0 9 88 59 254 363 423 800 809 872 1258 1450 1415 1069 823 798 954 720 517 412 99 26 16 41 1 15 32 5 54 106 191 147 130 43 163 108 110 56 114
0 0 0 0 0 0 24 164 53 190 329 698 717 979 1204 1287 1445 837 708 979 279 96 64 44 2 0 0 4 3 10 12 20 36 57 154 191 123 182 201 187 137 128 93
2 0 0 0 0 0 0 36 148 129 74 314 507 799 1423 1231 1279 1000 908 888 369 57 32 3 3 0 0 3 16 3 4 11 6 44 174 221 140 193 149 167 131 122 137
0 0 0 0 0 0 0 0 151 197 86 202 253 709 1333 1303 1161 768 690 726 617 160 25 29 1 2 0 3 26 9 7 12 13 13 145 136 143 205 167 179 214 151 99
0 0 0 0 0 0 0 0 1 148 197 111 193 238 761 903 852 791 981 813 653 296 39 49 7 2 10 4 11 8 21 7 16 56 138 202 237 180 206 217 214 196 97
0 0 0 0 0 0 0 0 4 4 41 54 131 136 653 721 1070 685 815 784 695 343 191 18 53 10 53 39 0 4 16 14 5 76 164 201 215 217 225 255 256 174 137
0 0 0 0 4 3 0 1 2 3 0 17 29 143 375 564 578 676 391 549 365 370 106 28 11 31 0 0 7 1 2 13 4 62 108 170 148 172 187 131 68 86 142
0 0 0 0 12 18 3 2 4 0 0 0 10 111 243 448 413 460 359 129 117 143 130 84 76 21 74 6 2 3 0 22 12 0 115 138 154 157 59 18 33 95 34
0 0 0 4 47 47 2 0 0 0 0 0 30 208 303 379 356 430 108 156 93 66 56 32 101 112 39 1 6 6 4 0 3 33 50 66 71 53 19 3 17 37 36
0 0 9 122 96 39 5 0 0 0 0 0 185 341 235 242 178 262 51 132 46 20 16 14 7 12 8 7 19 5 16 20 7 34 35 36 49 42 74 6 0 0 0
0 27 126 63 27 14 1 0 0 0 0 0 189 484 265 86 161 81 35 54 29 7 0 5 2 16 0 1 4 11 1 4 4 0 0 2 0 9 0 0 0 0 0
126 118 37 19 10 0 0 0 0 0 0 5 166 141 300 78 140 74 24 81 11 0 0 3 0 0 0 0 0 6 12 11 8 4 36 5 12 15 7 20 0 1 0
100 22 24 10 0 0 0 0 0 0 0 7 107 114 111 81 163 43 31 8 14 0 1 0 0 0 0 0 0 0 0 0 2 22 31 7 13 0 6 13 0 0 0
0 1 0 0 0 0 0 0 0 0 0 0 50 162 105 222 118 33 4 19 6 2 2 3 13 0 0 0 0 0 1 2 0 0 0 0 4 7 1 0 0 0 6
0 1 1 0 0 0 0 0 0 0 0 0 17 171 174 61 23 26 5 22 5 3 5 3 3 2 0 0 0 0 0 0 0 2 0 0 6 0 0 0 1 0 0
18 17 1 5 6 0 0 0 0 0 0 0 0 38 0 23 3 28 6 32 16 6 4 1 3 4 2 2 2 1 6 2 1 1 0 0 2 5 2 6 11 10 6
2 0 1 0 0 0 0 0 0 0 1 9 0 8 0 24 48 8 8 27 21 22 6 3 5 2 0 4 5 2 10 6 8 9 13 15 16 8 12 17 11 8 7
0 0 0 0 0 0 0 0 0 0 0 0 0 0 0 0 41 25 3 17 47 32 29 15 15 1 1 7 11 7 7 11 10 10 4 4 0 5 11 2 2 4 4
0 0 0 0 0 0 0 0 0 0 4 0 0 0 0 0 28 67 17 50 48 85 73 27 27 10 13 0 6 3 3 11 6 1 12 0 2 7 7 5 5 0 0
0 0 0 0 0 0 0 1 0 1 0 0 0 0 0 0 3 47 17 59 76 55 84 15 26 4 8 3 4 3 0 5 1 3 1 0 3 4 2 0 0 0 0
0 0 0 0 0 0 0 2 5 6 0 3 8 0 0 0 0 37 57 68 72 72 39 32 42 37 0 10 7 2 0 0 0 0 0 0 1 0 0 0 0 0 0

GFSMW_con_mucape_126.txt.gz
CAPE
0 0 0 0 0 0 0 0 7 27 20 325 1193 1774 2135 1895 1680 1472 1571 2115 1670 1792 1831 1398 1084 881 520 343 197 79 20 22 45 46 74 63 19 11 11 12 2 0 0
0 0 0 4 0 0 0 1 281 313 381 8 11 740 1589 2400 1956 1422 1315 1566 1862 1726 1541 1527 1141 1121 824 270 171 53 56 9 18 11 56 21 30 63 37 23 17 6 1
0 0 12 1 0 0 344 357 507 502 514 296 89 945 1552 1663 1650 1533 1494 1204 1753 1498 1675 1228 841 670 672 447 125 156 63 15 12 35 17 0 0 28 27 16 10 7 0
13 24 10 0 11 20 37 356 631 881 720 927 594 1071 1173 1251 1180 1001 1252 1472 1736 1557 1417 1143 671 435 519 242 104 170 11 34 12 29 45 19 1 0 27 18 30 29 0
58 20 0 0 0 20 38 180 246 534 933 1054 1023 1367 1019 845 919 560 771 993 1433 1139 1116 826 442 187 107 64 208 55 49 75 28 2 0 13 30 17 0 3 9 27 4
39 2 11 3 28 162 219 391 193 125 267 448 470 1116 1233 648 514 701 638 986 1022 1111 890 539 508 209 90 81 76 27 63 43 44 25 8 0 33 6 0 0 0 3 6
33 32 32 18 20 31 66 11 28 75 288 287 375 518 841 763 799 975 882 1131 997 1083 642 513 477 221 132 88 59 112 85 13 6 16 3 8 56 22 4 0 0 0 11
74 56 22 21 21 13 7 10 0 48 255 178 173 426 597 826 872 1408 937 920 729 411 809 357 433 375 59 25 11 34 31 4 12 27 7 20 59 59 57 0 0 0 15
65 43 14 20 17 0 18 28 0 0 50 151 98 184 262 815 968 952 881 750 791 360 193 324 302 24 0 0 0 2 0 6 16 23 6 18 69 109 69 95 20 2 1
2 0 3 14 13 9 12 30 1 0 0 17 116 109 203 526 870 938 1095 617 885 491 287 52 30 0 11 0 1 0 1 14 19 2 21 40 39 97 123 127 68 35 4
0 0 0 10 16 28 16 1 0 0 0 0 109 87 87 220 861 807 892 712 661 469 325 37 25 24 31 4 0 0 0 1 31 6 81 16 48 27 122 138 149 61 56
0 0 0 6 6 8 1 0 0 0 0 0 0 69 79 111 715 879 921 753 661 518 267 169 31 2 35 27 68 31 0 0 9 34 4 0 30 52 141 160 169 79 68
0 0 0 0 0 39 30 0 0 0 0 0 0 4 58 46 151 822 677 607 787 490 405 151 24 8 12 32 2 2 1 2 5 14 14 11 0 42 71 95 128 108 69
0 0 0 0 150 101 15 0 0 0 0 0 0 0 48 27 243 529 595 614 603 313 261 63 11 5 25 20 26 18 18 1 2 0 22 12 0 0 83 77 99 100 80
0 0 0 172 41 28 18 0 0 0 0 0 0 0 17 19 122 477 332 486 443 90 71 108 81 48 60 27 17 0 0 7 9 11 3 12 40 61 70 84 64 76 64
0 0 133 60 28 0 0 0 0 0 0 0 0 0 9 5 202 477 277 513 304 94 58 6 13 2 5 16 0 15 59 13 17 24 10 9 10 48 35 52 49 70 53
109 116 45 11 0 0 0 0 0 0 0 0 0 0 0 16 25 195 322 441 350 5 31 3 0 0 9 2 2 5 0 3 13 7 6 9 0 43 54 3 32 24 3
67 54 7 0 0 0 0 0 0 0 0 0 0 0 0 7 29 206 116 262 286 18 82 1 2 7 1 2 0 2 4 1 1 0 5 10 0 9 3 14 25 32 0
1 4 0 0 0 0 0 0 0 0 0 0 0 0 0 2 34 147 68 182 246 76 29 6 4 0 0 0 0 0 0 0 0 0 3 20 19 14 26 7 0 8 6
2 0 0 0 0 0 0 0 0 0 0 0 0 0 0 0 56 53 119 57 28 81 23 11 6 0 0 0 0 0 0 0 0 0 0 0 0 0 0 0 0 0 0
0 0 0 0 0 0 0 0 0 0 0 0 0 0 0 0 11 37 18 123 12 22 10 7 7 6 1 0 0 0 0 0 0 0 0 0 0 0 0 7 0 0 2
0 0 0 0 0 0 0 0 0 0 0 0 0 2 0 0 0 6 29 55 55 33 17 8 3 6 4 4 0 0 1 0 0 0 0 1 1 0 1 2 1 12 11
0 0 0 0 0 0 0 0 0 0 0 0 3 2 0 0 0 0 0 64 64 25 27 37 13 5 3 5 3 5 5 12 22 7 12 7 15 12 13 12 12 9 13
0 0 0 0 0 0 0 0 0 0 0 0 1 0 0 0 0 0 0 21 61 29 57 75 50 13 8 6 2 5 2 15 3 10 19 23 23 13 10 7 8 24 16
0 0 0 0 0 0 0 0 0 4 0 4 0 0 0 0 1 0 0 22 28 40 73 59 78 119 46 37 3 3 3 8 14 12 9 25 16 11 6 3 6 10 2
0 0 0 0 0 0 0 0 0 12 7 4 0 0 0 0 0 0 0 0 34 58 47 66 68 70 57 65 26 6 9 9 10 9 5 14 2 3 3 6 0 0 0

GFSMW_con_mucape_129.txt.gz
CAPE
0 0 0 0 0 0 0 0 0 0 2 1908 2154 2260 2193 2038 1691 1573 1673 2241 2286 2334 2058 1747 1583 1286 1044 778 543 314 172 34 5 44 62 9 18 11 11 0 0 0 0
0 0 0 0 0 0 39 52 172 129 33 4 1264 1987 2081 2111 1988 1716 1461 1763 2077 2100 2060 1893 1600 1385 1016 901 1030 414 199 79 3 12 8 10 27 27 10 0 0 0 0
0 0 40 27 2 53 77 173 235 369 544 352 50 39 1539 2112 1973 1895 1625 1378 1708 1793 1806 1748 1612 1319 1554 972 1155 470 139 83 5 21 0 0 0 0 6 5 2 0 0
0 11 6 39 64 50 26 81 79 83 524 704 345 96 405 1110 1560 1650 1444 1611 1148 1555 1734 1479 1409 1226 1256 1339 918 249 166 183 21 54 0 5 0 0 0 13 15 9 1
31 48 29 93 52 44 9 112 97 50 207 672 778 747 773 718 997 1211 1209 1079 1018 1190 1478 1451 1251 1255 1352 948 795 115 371 51 82 10 31 4 7 0 0 0 7 25 15
0 18 19 79 68 46 57 94 122 75 65 90 155 660 1135 1077 962 1005 1017 831 999 1162 1100 1310 1355 1025 777 695 159 308 127 132 112 63 41 28 0 1 0 0 0 0 13
35 39 35 32 31 48 45 49 12 43 159 186 110 69 297 1107 1039 640 718 301 496 788 664 1073 1286 1100 815 130 168 151 41 42 59 83 46 51 16 1 8 2 0 0 3
32 29 29 19 34 75 61 41 3 15 151 163 115 92 106 334 807 597 464 420 299 675 634 844 1213 889 487 124 160 100 61 65 97 42 31 14 2 7 9 0 0 0 6
49 59 63 21 30 64 38 10 26 4 0 108 37 53 63 218 386 764 805 888 909 1104 788 822 888 781 330 286 173 135 77 111 23 31 4 49 14 1 4 0 1 0 3
6 27 12 23 29 43 46 25 6 0 0 0 0 0 42 129 241 389 782 1137 907 922 514 327 444 527 605 257 215 165 9 9 8 39 13 11 17 2 10 3 13 3 0
6 0 11 2 36 19 7 0 0 0 0 0 0 0 0 68 84 134 626 781 918 818 836 450 176 148 231 280 34 0 0 3 0 19 26 21 4 11 30 37 16 22 19
0 0 0 0 0 0 0 10 11 9 0 0 0 0 0 9 65 52 296 634 800 789 707 316 354 91 60 0 17 8 0 0 0 9 5 15 13 11 40 45 28 34 30
0 0 0 74 26 20 7 57 59 39 3 0 0 0 0 1 13 28 202 563 657 712 684 514 118 88 60 2 8 12 19 29 5 2 5 12 12 6 63 31 39 46 57
0 0 62 42 45 34 40 63 62 31 1 0 0 0 0 0 8 14 17 504 465 903 663 545 378 80 35 11 10 3 0 1 0 0 15 20 11 0 10 44 23 30 58
43 56 30 13 17 32 65 47 30 9 0 0 0 0 0 0 0 36 8 117 321 650 576 543 345 119 17 14 13 6 27 31 9 0 3 1 12 12 33 56 2 32 16
27 31 15 32 33 21 4 0 0 0 0 0 0 0 0 0 0 30 13 78 317 340 387 415 266 137 75 30 5 9 25 10 0 25 23 24 9 27 9 9 37 29 0
28 21 23 0 0 0 0 0 0 0 0 0 0 0 0 0 0 0 36 43 228 295 220 438 218 93 128 61 27 25 12 5 8 2 17 28 4 7 19 3 0 2 0
0 0 1 0 0 0 0 0 0 0 0 0 0 0 0 0 0 0 21 59 91 184 217 295 220 52 12 0 8 11 2 9 12 9 27 18 6 6 4 5 22 21 0
0 0 0 0 0 0 0 0 0 0 0 0 0 0 0 0 0 0 7 63 64 88 145 229 155 14 5 7 13 11 23 10 15 18 2 3 1 2 14 15 2 0 8
0 0 0 0 0 0 0 0 0 0 0 0 0 0 0 0 0 0 0 30 9 67 103 117 71 60 3 3 0 2 2 0 0 0 0 0 0 3 5 21 0 0 1
0 0 0 0 0 0 0 0 0 0 0 0 0 0 0 0 0 0 0 2 8 21 27 64 72 10 5 2 0 0 0 0 0 0 0 0 4 0 1 0 37 0 8
0 0 0 0 0 0 0 0 0 0 0 0 0 0 0 0 1 0 0 1 23 38 41 41 11 18 3 1 0 0 0 0 0 0 0 0 0 0 0 0 0 0 0
0 0 0 0 0 0 0 0 0 0 0 0 0 0 0 0 3 0 0 0 0 13 0 51 34 36 20 6 0 0 0 3 0 0 0 3 5 2 0 0 0 1 0
0 0 0 0 0 0 0 0 0 0 0 0 0 0 0 0 0 0 0 0 0 19 22 5 6 21 12 7 5 4 2 7 1 0 0 8 9 13 9 5 4 19 16
0 0 0 0 0 0 0 0 0 0 0 0 0 0 0 0 0 0 0 0 2 0 29 63 57 43 36 14 5 3 5 8 3 11 11 13 10 10 9 10 17 12 7
0 0 0 0 0 0 0 0 0 0 0 0 0 5 0 0 0 0 0 1 0 0 0 6 53 19 4 43 29 7 14 15 17 8 8 6 4 0 4 10 13 8 5

GFSMW_con_mucape_132.txt.gz
CAPE
0 0 0 0 0 0 0 1173 2376 2836 2677 2221 2217 2069 2169 2050 2023 1889 1804 2039 2006 2031 1955 1912 1565 1492 1390 1231 792 531 430 191 104 39 30 18 10 20 15 2 0 0 0
0 0 0 0 0 0 1 13 22 246 1639 2180 2089 2042 1985 1917 2150 2066 1620 1846 2068 1946 1814 1662 1353 1385 1445 1319 1073 646 494 333 173 41 10 32 9 2 0 3 0 0 0
0 0 0 0 34 133 216 296 354 391 407 357 231 1578 1973 1862 1901 2076 2001 1524 1619 1944 1818 1329 1254 1227 1349 1092 1064 835 618 405 196 45 27 23 12 6 0 3 1 0 0
0 2 0 257 357 263 124 100 96 85 408 729 652 495 1638 1770 1759 1497 1408 1770 1545 1378 1550 1421 1322 1263 1249 1252 1159 987 738 487 150 58 18 1 3 6 0 0 0 0 0
0 32 0 252 210 150 179 150 161 169 204 220 524 651 407 284 895 1687 1567 1368 1322 1186 1294 1271 1144 1308 1298 1425 1292 991 881 644 162 77 121 4 8 12 1 3 0 0 0
0 5 324 308 418 166 23 22 109 328 289 245 149 133 266 805 1017 862 1309 1164 975 1012 1076 1050 1138 1419 1414 1362 1171 1008 915 566 219 99 160 21 9 35 9 7 3 0 3
0 304 308 295 20 8 16 23 92 324 493 406 282 182 61 135 820 927 909 909 864 949 849 910 1004 1158 1234 1123 1000 688 791 757 70 90 82 45 30 18 28 16 3 0 2
0 291 271 73 14 22 32 49 24 5 132 170 137 144 55 25 121 396 581 741 425 597 565 769 803 849 996 1080 865 604 525 151 80 126 86 43 104 62 19 36 8 1 0
21 237 108 71 33 43 31 37 14 0 0 0 0 0 0 5 28 97 353 376 576 471 497 473 638 791 749 794 643 684 410 160 169 25 62 96 101 52 40 12 15 6 2
149 98 19 19 10 17 34 27 0 0 0 0 0 0 0 0 12 45 158 265 519 661 677 808 618 676 640 757 585 565 195 138 160 43 30 73 31 58 20 12 25 13 0
43 33 7 14 16 6 2 4 4 15 10 7 0 0 0 0 0 4 41 123 268 640 628 747 500 511 529 481 677 401 257 128 322 179 24 84 29 11 14 16 12 13 0
29 1 0 19 9 9 2 12 33 59 40 9 0 0 0 0 0 0 2 53 123 402 613 621 544 451 316 344 476 397 432 230 136 113 156 36 21 3 20 21 40 6 1
0 0 20 118 101 13 3 25 47 28 1 0 0 0 0 0 0 0 0 3 28 205 472 480 570 319 379 265 88 125 245 96 47 4 15 4 3 22 24 35 16 2 1
3 26 28 111 115 30 17 8 7 0 0 0 0 0 0 0 0 0 0 4 2 40 350 291 496 387 309 73 61 51 3 16 18 27 28 1 5 13 25 37 10 8 28
65 102 75 140 71 21 18 0 0 0 0 0 0 0 0 0 0 0 0 0 15 2 233 283 454 477 305 419 56 16 10 7 20 1 7 3 0 11 21 23 45 13 43
51 55 56 44 30 2 0 0 0 0 0 0 0 0 0 0 0 0 0 0 16 20 69 222 348 420 316 241 46 3 18 24 26 24 8 14 3 2 1 16 16 0 0
2 0 4 2 0 0 0 0 0 0 0 0 0 0 0 0 0 0 0 0 0 15 24 66 98 378 289 277 45 21 17 12 15 16 11 13 40 11 30 37 2 0 0
0 0 0 0 0 0 0 0 0 0 0 0 0 0 0 0 0 0 0 0 0 9 24 30 63 107 168 169 123 56 33 31 12 9 12 10 10 14 33 8 7 2 8
0 0 0 0 0 0 0 0 0 0 0 0 0 0 0 0 0 0 0 0 0 0 1 20 76 198 100 13 77 11 3 3 16 8 11 26 29 10 23 6 33 2 14
0 0 0 0 0 0 0 0 0 0 0 0 0 0 0 0 0 0 0 0 0 0 0 1 38 42 27 11 96 4 0 4 8 8 14 4 17 10 1 2 21 0 12
0 0 0 0 0 0 0 0 0 0 0 0 0 0 0 0 0 0 0 0 0 0 0 0 20 35 33 6 25 3 12 5 12 8 8 0 0 0 3 5 0 0 4
0 0 0 0 0 0 0 0 0 0 0 0 0 0 0 0 0 0 0 0 0 0 0 9 3 0 28 9 11 3 0 0 8 0 0 5 0 3 1 1 0 0 19
0 0 0 0 0 0 0 0 0 0 0 0 0 0 0 0 0 0 0 0 0 0 0 0 0 2 12 7 5 1 0 0 0 0 0 0 0 0 3 2 0 11 13
0 0 0 0 0 0 0 0 0 0 0 0 0 0 0 0 0 0 0 0 0 0 0 0 0 0 14 10 0 10 2 0 0 0 0 0 0 2 0 0 0 0 0
0 0 0 0 0 0 0 0 0 0 0 0 0 0 0 0 0 0 0 0 0 0 0 0 0 1 0 18 15 32 14 2 2 6 2 0 0 9 14 7 0 0 0
0 0 0 0 0 0 0 0 0 0 0 0 0 0 0 0 0 0 0 0 0 0 0 2 0 0 0 16 18 67 39 4 10 24 12 1 3 2 5 3 2 0 3